GFSSE_con_3kmhel_000.txt.gz
Helicity
28 57 60 76 89 61 61 74 60 46 33 16 1 16 45 40 36 63 63 16 24 13 28 35 30 47 50 46 43 45 44 21 40 39 41 37 30 23 13 27 17 18 37
45 50 44 44 79 34 38 80 64 54 21 5 -14 10 8 43 45 20 24 25 26 16 42 73 86 58 46 36 29 41 27 39 31 23 27 19 12 13 17 23 27 21 19
26 43 52 45 41 40 63 76 56 26 8 -2 -17 -3 -4 -7 -5 9 19 30 29 29 43 61 76 60 53 55 27 22 29 12 29 13 4 5 13 32 9 -6 -6 32 8
27 31 37 42 33 42 59 48 33 29 19 0 -23 -6 -4 -7 15 10 11 36 40 55 46 50 42 40 58 70 42 28 24 8 2 -6 -6 3 2 32 2 1 -10 -1 24
24 20 37 32 36 21 43 40 32 32 27 -5 -22 -22 -2 -13 4 23 40 51 44 45 39 44 42 34 39 53 48 35 18 14 33 -2 -20 -16 -11 5 4 -4 1 -13 0
18 7 50 -4 1 -9 38 51 31 22 7 1 -32 -34 -20 -2 5 38 35 44 48 45 43 50 52 46 35 35 24 17 14 23 26 9 0 -1 6 13 15 10 11 3 1
13 10 24 -15 -21 15 28 26 14 9 10 -7 -22 -24 -6 -3 0 19 54 48 53 48 59 54 45 51 43 38 25 14 9 19 30 13 25 15 19 21 15 14 7 20 14
22 15 8 5 -13 32 23 24 26 8 10 -4 -13 -30 -5 20 11 6 37 51 42 41 51 54 39 41 38 35 30 30 28 27 34 26 31 31 32 27 14 17 25 26 24
35 22 14 16 24 10 2 12 9 11 11 -7 0 -17 -20 -13 24 54 37 33 38 31 45 46 37 31 35 37 40 39 39 34 27 39 41 47 53 44 31 21 29 28 31
44 34 22 11 23 22 36 27 4 8 19 14 5 4 -10 -15 4 17 28 41 40 37 45 47 36 21 14 22 29 34 47 44 21 32 44 49 59 42 32 31 22 29 29
43 43 27 24 29 28 24 49 38 24 25 25 13 23 -2 -2 7 15 36 32 33 33 30 29 24 12 21 26 36 46 54 32 25 41 50 65 63 36 34 34 33 29 32
53 42 39 41 41 39 42 31 32 34 24 21 15 10 15 11 14 26 27 40 31 32 28 24 20 27 33 33 45 70 48 36 45 45 48 59 43 32 32 38 40 41 41
37 53 54 59 62 59 55 49 46 49 44 37 23 21 24 26 26 29 33 29 28 36 19 26 31 31 32 38 41 44 47 51 60 63 60 79 48 26 25 34 41 45 46
30 51 64 73 78 62 56 58 51 58 56 42 41 36 42 44 41 35 40 33 35 39 41 42 50 45 43 43 43 44 48 63 78 82 77 113 92 49 38 39 41 43 46
50 58 54 52 53 52 51 50 47 46 59 52 57 60 63 71 74 62 58 66 61 56 56 56 56 58 57 57 62 62 67 77 84 117 125 135 158 115 78 71 66 56 54
74 62 55 37 39 59 59 59 59 55 50 67 83 85 85 92 98 96 82 68 66 65 63 59 56 57 58 59 59 63 68 77 82 81 110 108 146 139 115 94 94 96 91
102 100 81 56 60 80 98 93 84 80 70 81 100 98 95 92 86 66 59 57 60 61 52 57 57 61 58 59 59 69 77 72 75 72 83 95 92 114 121 81 67 84 96
113 117 103 84 76 93 122 142 121 103 101 109 108 96 95 89 76 61 53 57 67 58 55 48 51 49 55 66 71 72 73 67 59 62 71 78 85 98 109 77 72 52 45
118 125 126 107 90 87 104 132 154 154 139 134 118 108 103 89 73 63 69 63 52 52 57 59 58 58 55 56 61 65 66 66 60 66 61 56 62 77 96 89 121 125 115
133 136 119 93 87 87 96 119 147 145 155 162 157 149 140 117 107 80 82 99 92 82 74 69 68 64 52 54 55 46 42 38 43 67 80 96 93 97 93 87 96 107 105
167 158 124 108 87 72 92 123 136 147 147 146 134 139 132 121 133 126 96 91 80 64 50 36 30 23 17 23 8 52 32 -36 78 60 223 120 82 83 74 83 92 115 121
146 126 105 98 102 92 85 115 116 130 148 140 131 137 130 117 104 84 72 50 41 24 29 29 38 37 58 73 77 71 42 44 117 196 103 76 101 87 108 89 44 71 106
134 102 94 90 94 89 76 67 69 82 92 97 97 87 95 89 77 56 42 29 31 29 35 38 49 50 57 63 98 92 102 103 87 66 97 64 193 167 137 140 174 155 113
91 68 67 64 67 74 75 93 111 101 93 85 81 71 61 68 63 48 40 34 24 11 30 38 60 63 70 79 69 77 83 98 106 103 119 126 102 187 138 136 135 126 116
65 63 51 57 81 99 116 109 90 79 56 51 56 69 66 53 44 25 -11 -21 28 49 62 59 59 57 54 65 72 71 78 88 98 134 132 121 106 111 123 117 95 109 113
75 65 54 69 95 113 115 99 83 73 72 69 73 60 27 -1 -8 25 38 77 93 83 71 57 51 53 55 57 52 45 53 75 75 98 122 118 111 89 94 119 106 106 141

GFSSE_con_3kmhel_003.txt.gz
Helicity
52 110 80 72 68 78 77 87 80 67 48 34 22 19 60 56 42 42 40 30 23 34 47 70 71 71 71 59 55 53 48 47 23 16 26 29 32 30 21 53 36 33 63
59 90 64 54 42 54 58 76 79 75 46 20 10 26 42 54 42 9 17 28 38 46 53 82 119 87 92 70 43 33 36 54 37 33 24 11 20 21 30 41 36 43 43
33 72 51 33 51 48 64 75 55 57 38 15 1 17 23 11 4 17 20 35 40 44 47 53 81 97 99 84 66 47 46 52 34 46 21 16 3 46 19 19 16 43 55
27 44 38 51 28 36 71 55 42 33 33 19 7 18 18 14 15 24 29 39 39 37 37 53 62 74 75 78 74 55 41 52 56 49 33 26 17 28 22 6 25 25 37
19 17 69 70 29 51 54 34 29 32 34 23 12 -6 16 30 15 21 24 38 46 38 37 48 60 64 58 63 70 83 52 66 59 47 46 45 49 54 25 5 4 16 12
24 23 85 62 38 23 26 33 31 33 25 23 17 -7 14 33 21 28 44 47 38 42 46 48 57 59 64 68 68 62 47 59 54 62 65 53 53 58 48 41 30 26 19
29 39 52 58 33 21 34 38 24 29 21 20 17 15 21 41 21 24 38 38 42 38 40 40 45 48 58 64 57 60 59 68 58 58 74 64 62 69 55 50 46 47 51
40 40 72 55 30 28 25 30 36 30 22 23 18 1 14 42 72 62 41 36 42 43 45 51 59 41 39 32 36 41 45 44 34 41 47 63 71 62 57 50 39 53 52
40 36 51 48 37 38 15 15 30 31 23 25 45 21 14 11 35 61 67 52 59 54 62 65 44 32 25 22 34 40 47 47 34 34 34 57 65 63 56 50 51 50 57
35 40 48 42 68 63 52 70 43 24 43 39 30 36 39 5 22 36 36 48 59 48 38 37 19 8 -8 -1 9 17 42 50 28 27 47 62 55 51 44 42 48 50 45
34 43 47 54 68 59 59 120 87 53 50 63 43 53 34 24 40 53 78 50 40 25 19 16 11 4 6 13 9 23 63 50 19 39 56 46 54 30 20 26 36 46 55
33 50 58 62 81 77 93 96 74 81 69 74 60 56 43 45 49 56 42 47 36 15 14 -5 -8 -3 16 16 29 52 57 37 60 69 85 68 62 26 15 22 29 39 55
15 61 63 80 81 85 86 75 71 74 76 73 54 57 71 69 63 59 54 50 40 45 29 32 31 45 40 54 53 53 62 73 98 113 104 111 121 86 66 63 60 54 54
40 60 70 66 73 72 79 76 72 79 79 83 96 81 87 92 90 76 74 68 59 56 49 46 52 43 40 35 44 51 63 86 109 124 126 118 144 116 97 85 89 99 93
56 61 60 57 58 58 69 86 85 78 85 88 112 104 101 101 105 97 79 72 70 66 49 59 53 56 60 70 72 67 68 73 85 122 145 124 145 146 120 99 80 78 97
109 98 73 58 55 64 91 116 116 92 92 101 128 119 104 92 87 80 69 72 71 78 71 61 61 63 62 68 73 68 57 69 75 84 116 128 137 154 141 112 85 61 55
166 135 97 77 57 90 137 163 148 123 115 116 129 116 97 92 89 82 75 79 91 75 68 74 64 65 68 70 70 74 76 73 71 66 80 108 118 116 140 105 85 77 63
171 136 116 86 72 101 143 164 159 168 148 130 129 130 133 132 111 91 98 100 85 91 83 91 85 85 75 58 56 60 57 54 56 55 67 76 116 114 123 98 88 71 72
140 128 118 99 105 103 132 172 201 165 173 161 185 178 166 159 144 134 125 115 105 100 98 91 87 80 68 55 69 79 68 66 63 45 34 41 76 100 133 88 86 97 100
133 128 135 131 111 108 118 137 170 208 211 195 191 179 169 153 158 140 129 128 111 97 92 77 67 61 48 59 70 54 71 61 73 68 129 247 128 129 116 97 118 150 148
167 159 135 92 68 65 88 132 150 153 161 179 180 185 177 173 161 152 122 111 96 75 58 43 38 32 18 65 57 88 70 114 104 220 166 123 122 142 125 106 68 65 69
175 147 122 109 101 109 113 138 148 163 171 159 152 157 156 153 140 112 95 62 45 15 30 20 32 39 69 78 85 64 43 47 144 116 101 80 65 135 118 128 150 137 135
170 129 104 102 107 116 116 125 141 134 131 140 136 117 118 113 98 67 39 15 7 -3 23 49 68 72 74 74 94 65 48 51 65 62 81 79 152 113 123 126 132 126 113
141 105 95 96 104 109 128 154 166 139 127 95 76 71 66 75 55 22 6 9 30 42 65 70 86 73 77 72 64 74 58 78 83 88 109 85 113 115 102 127 143 122 97
117 93 85 90 95 101 107 105 98 91 57 41 39 49 52 42 23 11 5 36 65 81 90 85 83 77 67 72 65 56 57 74 88 103 122 127 144 126 171 135 250 182 107
109 98 87 86 90 98 115 120 97 64 49 51 63 66 61 37 22 56 65 89 101 102 98 83 69 50 51 64 65 51 69 84 92 128 126 141 142 152 214 236 190 199 215

GFSSE_con_3kmhel_006.txt.gz
Helicity
107 95 81 83 66 67 63 58 73 64 48 34 27 48 96 84 69 46 39 24 20 27 53 73 64 82 91 99 81 81 69 70 49 40 49 52 34 29 28 71 57 55 51
145 75 65 54 63 70 71 80 78 61 49 27 24 46 72 66 63 25 26 22 31 40 62 68 84 86 105 101 64 60 64 62 59 57 57 45 18 23 14 46 32 46 54
93 70 35 46 53 69 80 89 70 52 42 28 23 43 50 42 32 20 40 37 40 48 48 52 47 60 76 111 94 80 70 65 63 73 45 61 50 50 50 52 30 21 19
82 44 36 35 59 57 74 69 52 50 46 37 32 44 23 21 32 26 45 45 42 35 40 46 53 60 62 81 71 73 74 65 75 83 87 110 91 61 57 51 53 61 57
39 34 115 60 39 77 90 70 50 43 51 40 37 19 30 35 12 27 32 48 48 37 33 41 44 55 57 57 56 51 60 52 65 75 110 84 96 100 67 62 61 71 90
36 118 102 91 57 79 73 75 63 48 43 38 28 16 32 36 34 32 38 57 58 34 31 27 31 33 38 39 34 42 39 42 47 52 60 71 95 77 71 73 66 72 91
64 109 94 110 76 68 71 79 69 62 45 37 29 30 33 28 48 46 48 55 43 33 28 27 37 32 28 19 18 16 23 30 39 47 44 47 65 58 63 58 62 61 71
96 97 75 80 67 69 72 72 59 61 54 51 36 20 23 26 73 82 71 54 45 48 42 43 36 20 6 -2 1 2 18 30 31 31 34 56 25 47 51 51 55 54 59
90 88 75 58 54 52 41 53 60 69 67 71 69 42 32 14 28 56 70 50 34 33 30 18 1 -14 -26 -29 -23 -11 13 23 44 44 12 27 28 14 25 31 36 46 53
77 56 100 88 71 51 43 60 87 84 90 86 75 66 42 5 4 28 40 40 33 20 5 -2 -15 -22 -25 -26 -25 -20 -3 29 70 56 35 40 -6 -14 4 15 16 21 34
56 54 64 88 97 81 72 103 96 110 108 95 77 66 63 33 40 27 61 64 24 0 -10 -12 -17 -15 -5 9 -4 -20 15 89 67 65 88 76 49 24 11 13 13 7 7
72 49 56 78 100 73 112 137 79 105 97 99 70 106 80 63 73 69 45 36 17 0 9 -7 -2 5 20 51 51 22 95 120 96 106 129 96 83 57 60 55 51 49 53
77 88 71 73 90 102 106 98 76 115 66 76 86 102 90 93 76 74 69 62 43 38 58 34 50 69 64 66 79 73 95 115 129 133 137 114 109 76 67 69 73 67 67
110 114 105 82 80 93 114 86 73 104 88 78 87 91 97 97 92 72 68 61 54 51 44 35 47 41 59 69 73 84 88 108 137 159 157 123 130 111 83 85 92 83 61
119 139 120 96 100 84 111 96 86 113 112 93 126 97 100 96 93 88 69 52 67 73 68 68 59 60 60 62 59 50 37 38 72 104 132 93 105 125 101 81 74 63 55
136 147 108 106 97 116 125 135 140 138 137 146 133 102 108 92 89 78 67 108 90 75 75 79 79 68 58 49 39 36 50 47 41 46 59 69 54 84 100 80 62 53 45
249 210 155 142 107 137 134 165 202 211 210 175 148 133 119 130 126 105 119 112 106 115 126 109 106 87 75 64 52 68 80 69 75 89 90 86 106 106 113 98 74 47 44
173 188 145 114 122 150 176 169 183 225 212 184 171 216 192 162 172 209 173 169 158 135 134 114 92 78 63 54 73 63 49 54 65 47 45 110 113 103 84 74 45 53 43
189 150 123 93 109 157 224 261 294 257 293 323 291 232 199 211 249 202 196 174 181 155 127 101 82 54 32 43 53 54 77 48 56 126 158 142 95 71 58 79 36 53 58
147 130 136 133 159 232 241 276 350 343 321 279 238 225 217 217 225 215 184 152 140 124 101 79 66 60 58 48 57 57 58 95 98 82 78 85 69 92 97 100 96 108 103
140 132 134 135 115 109 181 218 225 230 223 231 228 218 211 200 181 171 142 116 95 90 68 68 33 34 31 72 55 63 55 83 95 93 94 92 97 88 88 69 27 -3 12
192 208 215 230 223 238 227 207 194 175 175 164 175 178 155 150 132 96 79 66 62 55 65 52 37 23 42 62 31 40 -6 31 85 63 43 44 39 25 26 33 44 56 63
221 207 192 189 197 204 216 194 144 132 146 150 119 94 82 80 80 67 57 46 40 30 39 53 53 60 52 75 77 45 -4 1 28 18 52 34 49 63 66 72 70 94 90
212 184 167 143 125 99 90 72 116 109 109 68 45 29 42 63 66 41 20 14 37 48 65 59 78 78 82 65 65 73 64 70 52 35 72 85 92 72 75 79 73 85 91
217 190 177 187 190 157 140 131 123 110 72 35 26 29 31 42 53 25 13 24 51 72 86 86 80 77 75 79 77 79 81 93 83 93 77 95 92 88 111 87 139 128 104
202 178 156 168 163 152 154 151 140 116 77 51 44 43 51 54 53 32 33 61 86 91 87 83 78 77 72 80 90 96 102 114 99 97 109 109 114 133 135 177 160 143 130

GFSSE_con_3kmhel_009.txt.gz
Helicity
23 69 99 86 99 83 82 108 86 71 48 35 45 67 76 75 66 43 35 45 37 40 72 88 105 97 102 76 65 62 68 78 58 57 53 60 63 44 38 61 81 84 61
74 67 82 76 79 73 93 123 108 88 62 48 46 67 99 60 53 48 39 41 49 48 48 58 64 66 76 86 53 57 53 50 54 62 58 54 55 59 39 91 58 58 56
64 52 50 65 72 89 108 127 120 96 75 57 49 63 66 48 46 24 31 48 58 45 36 37 55 39 46 65 83 73 56 55 40 41 47 70 63 71 58 90 81 67 49
45 34 12 27 65 83 99 99 98 97 84 76 50 48 40 32 36 32 37 47 43 34 32 26 32 37 44 48 69 49 38 46 38 9 30 62 38 79 70 72 67 74 77
32 14 1 54 62 70 111 103 91 80 72 79 65 15 28 30 8 23 29 62 64 48 35 23 17 23 27 28 22 15 10 25 53 6 15 19 30 63 72 65 64 58 66
47 33 31 54 67 90 82 94 86 72 60 44 46 20 14 5 19 18 23 58 66 42 30 11 -4 -0 -1 -2 -5 -7 -9 -12 21 9 -6 -10 26 22 54 55 53 43 51
100 94 75 85 107 89 77 82 79 72 64 42 35 28 5 4 13 54 58 80 60 16 7 -3 -5 -11 -20 -21 -24 -24 -17 -8 -2 -4 -9 -12 7 10 16 31 35 34 33
121 92 93 107 99 75 71 70 73 70 67 49 36 31 11 14 21 24 39 37 20 -2 -1 -11 -14 -20 -27 -29 -27 -22 -10 2 17 13 11 2 -30 -22 -10 6 13 17 22
112 89 95 88 70 69 62 52 60 68 77 76 69 46 35 7 5 17 27 10 1 -2 -9 -12 -23 -27 -26 -22 -22 -15 -4 3 37 58 31 24 -29 -45 -33 -22 -7 -1 -0
105 87 84 81 61 52 44 42 60 74 90 102 92 70 52 26 16 14 18 10 -2 -11 -17 -20 -20 -22 -23 -19 -19 -15 -19 -4 36 61 58 44 -15 -20 -11 -13 2 7 4
93 96 87 76 50 45 37 50 65 66 92 95 78 63 58 28 18 24 23 33 30 3 -18 -18 -26 -26 -18 -9 -18 -22 -13 71 84 88 87 39 -0 5 3 19 35 20 18
87 104 117 91 51 39 54 72 65 56 65 66 49 42 52 37 23 44 52 53 26 17 16 4 -0 9 25 71 75 49 82 83 94 121 126 74 41 33 15 35 59 70 50
88 88 110 123 65 85 88 80 60 52 52 58 45 29 44 41 42 51 43 38 43 30 37 34 36 36 39 62 58 72 92 105 118 130 130 106 79 45 32 54 63 82 100
104 77 88 104 116 124 126 76 80 64 59 64 38 60 60 78 58 52 56 60 51 45 37 45 42 43 40 50 41 31 19 17 19 27 34 19 23 10 8 13 24 33 41
91 93 104 130 144 135 135 92 104 93 102 117 108 98 103 95 88 82 97 93 87 85 93 112 134 113 82 66 49 50 55 49 43 40 42 32 38 38 46 38 26 27 29
125 157 142 148 152 176 166 119 149 144 165 141 132 116 117 102 95 118 126 133 157 162 167 143 116 99 80 64 60 74 67 60 59 56 63 86 92 133 162 140 87 44 43
208 223 192 137 162 187 171 193 198 221 215 211 233 203 197 158 156 210 209 217 200 172 150 132 128 102 96 97 87 84 71 65 73 90 124 132 134 155 185 206 237 204 137
222 222 199 213 194 212 185 198 203 267 339 342 304 274 266 254 257 226 201 198 188 173 149 133 104 90 93 85 65 68 68 70 109 136 119 111 115 98 102 154 179 197 227
144 150 150 174 231 243 271 343 424 423 362 325 300 266 257 255 235 215 187 177 173 150 137 112 103 86 59 60 49 44 57 72 89 75 90 91 103 84 70 72 93 111 136
115 140 137 187 276 401 402 429 424 404 349 291 263 241 241 224 215 178 155 150 137 117 113 91 79 63 29 24 31 47 47 63 61 88 87 110 90 83 79 49 22 14 65
128 149 160 228 318 384 393 395 367 313 296 262 240 223 209 171 155 137 114 108 90 81 68 56 24 30 34 46 21 52 43 58 87 69 95 90 86 70 37 20 11 24 59
136 145 189 246 295 287 272 260 256 243 229 192 172 168 142 129 110 96 77 64 68 56 55 50 40 27 23 32 -1 -14 -12 -0 66 70 50 61 44 32 45 57 63 67 59
204 195 216 241 277 246 220 228 230 225 180 148 125 111 98 98 90 76 69 52 38 32 42 42 54 53 35 42 70 35 7 25 38 34 27 49 43 51 54 55 48 54 66
212 212 233 247 232 198 167 151 110 92 98 84 79 62 71 79 79 65 52 32 23 22 53 49 62 57 64 68 62 89 97 102 69 62 120 67 56 75 63 74 66 71 64
235 232 227 215 185 143 136 104 105 111 112 98 90 87 82 76 64 47 33 24 25 35 51 75 86 97 82 78 83 78 90 97 110 139 102 117 104 114 108 108 109 96 80
272 256 256 248 204 176 147 119 125 138 141 143 119 102 63 35 39 44 42 36 40 57 70 78 84 92 85 88 94 100 120 121 117 131 122 118 122 141 148 152 135 125 89

GFSSE_con_3kmhel_015.txt.gz
Helicity
-40 -35 43 55 62 68 94 85 72 65 53 45 57 98 123 132 114 63 47 33 34 29 25 42 48 57 52 46 53 52 59 61 47 24 28 32 37 45 48 35 36 47 31
38 -23 33 39 36 79 83 73 69 77 72 55 52 76 83 85 71 53 50 45 35 27 31 28 36 31 41 49 35 42 39 46 42 38 35 37 40 36 20 9 21 29 17
65 2 5 6 31 87 91 87 78 82 79 64 39 68 72 57 43 9 20 16 24 28 19 15 29 30 25 37 46 44 40 36 37 33 40 40 40 30 8 -1 7 14 5
56 21 6 8 39 67 75 70 66 68 75 59 34 45 21 36 36 12 -11 16 26 23 27 18 22 20 17 20 22 22 23 35 31 37 42 34 31 40 50 14 15 10 12
42 25 9 22 44 69 66 62 53 51 54 51 31 -4 -11 11 14 43 64 46 36 29 28 28 26 22 25 22 25 19 20 24 46 47 34 27 21 26 35 13 21 28 30
37 26 20 25 42 58 50 48 47 43 39 30 17 -8 -34 -36 -44 -12 38 58 58 36 19 20 20 17 16 14 13 16 20 20 37 43 39 27 26 7 17 11 16 20 24
30 24 25 38 44 60 49 45 48 37 29 14 9 -7 -27 -44 -45 -5 13 54 43 20 16 18 25 29 26 20 18 16 29 29 46 53 48 38 33 13 3 6 1 4 7
54 42 43 48 57 66 53 47 45 33 19 13 12 3 -14 -43 -28 17 34 28 13 2 -2 -2 -0 -3 -5 -6 -1 -1 4 13 31 44 49 56 22 2 5 6 4 -4 14
63 73 61 63 69 78 63 55 42 28 16 9 5 9 -13 -16 -24 5 22 13 3 -4 -0 -2 -10 -16 -15 -12 -8 -8 2 7 30 56 64 77 36 16 10 9 5 -4 -3
81 74 81 95 97 78 64 63 46 32 19 24 8 -1 -0 -18 -15 -6 10 5 3 -0 -3 -9 -11 -8 -4 -1 4 9 15 23 41 59 84 94 55 47 38 28 15 7 7
82 84 90 97 104 85 73 48 40 31 28 30 19 8 -2 -10 -9 -5 5 5 -2 -2 -3 -2 -0 3 9 6 12 18 19 32 30 40 51 42 33 35 39 40 22 18 21
75 82 88 90 107 102 65 58 52 40 43 36 25 12 13 13 16 18 21 7 -1 11 13 17 11 18 39 35 45 59 49 51 53 52 58 67 77 75 89 101 108 93 58
84 102 84 85 105 115 82 72 64 64 58 44 22 20 23 33 40 42 48 49 45 40 35 40 55 65 87 73 71 60 60 62 63 69 74 97 95 96 98 94 101 101 66
119 119 100 96 120 112 99 90 77 79 65 50 38 44 48 55 54 61 69 66 72 73 90 89 78 78 79 76 68 75 79 80 82 84 107 151 156 148 143 154 127 176 205
109 142 151 140 133 118 115 101 98 83 77 65 67 69 78 75 81 91 114 115 117 107 93 81 81 84 70 73 80 85 96 108 122 131 138 194 204 205 201 187 249 211 235
50 158 202 176 152 140 127 111 82 96 85 95 111 113 108 100 122 140 136 137 123 100 99 81 76 74 64 62 81 97 100 110 129 154 142 164 221 234 227 254 241 235 244
97 147 233 218 182 150 139 120 91 109 177 196 209 183 135 145 147 143 138 127 102 102 93 90 91 87 87 100 101 105 101 127 149 158 150 152 158 204 220 233 235 238 241
140 159 216 237 203 180 169 178 219 270 293 282 259 226 197 175 153 157 134 125 113 109 94 84 87 90 96 81 68 90 86 117 159 171 151 141 122 138 163 208 195 194 195
128 168 221 263 237 242 304 320 347 353 348 315 275 228 176 181 158 153 133 123 113 110 110 94 87 73 51 63 75 91 89 113 146 139 151 132 122 131 127 153 151 156 159
134 179 233 301 323 362 426 413 426 431 377 338 264 214 202 176 165 155 137 132 110 100 102 84 81 58 42 41 58 82 88 108 121 131 101 103 107 115 123 104 79 100 143
160 197 266 348 354 417 440 454 429 397 342 302 252 216 221 189 169 154 128 115 102 90 73 77 60 77 55 58 49 84 93 103 107 123 69 93 89 114 103 81 77 95 96
155 190 275 341 397 450 461 380 371 317 303 265 242 254 209 187 158 142 112 96 91 76 79 75 76 60 56 51 29 28 54 72 108 77 103 98 100 66 57 70 77 89 110
176 203 265 342 427 438 415 408 457 385 307 256 260 234 204 173 150 128 114 96 86 64 58 55 59 67 60 54 66 52 43 72 69 40 90 95 66 70 67 74 80 98 115
181 214 242 264 293 296 301 292 278 254 252 193 196 180 180 162 149 126 113 90 70 53 67 57 64 58 52 56 58 97 76 92 99 90 75 102 42 65 54 73 91 97 110
205 216 226 225 227 240 247 229 262 300 251 229 208 197 183 167 153 133 106 86 76 64 60 70 73 79 74 79 84 89 94 107 91 132 130 96 66 64 70 68 100 129 123
233 236 237 231 228 215 231 239 258 265 239 219 177 177 155 149 140 128 114 100 91 80 74 76 83 92 100 110 109 107 103 107 114 114 134 115 103 98 114 132 104 132 137

GFSSE_con_3kmhel_018.txt.gz
Helicity
-44 -36 -10 30 55 54 71 61 46 39 39 38 47 62 97 99 71 48 22 25 18 32 44 51 59 47 32 53 54 53 57 57 52 35 38 36 44 37 30 26 30 41 15
24 -31 -24 11 42 56 69 60 46 43 44 30 37 56 59 55 45 29 17 30 30 28 17 34 31 30 53 57 49 48 44 48 51 55 57 58 59 48 33 21 20 27 16
34 -15 -13 15 41 60 62 64 53 46 46 28 6 43 57 35 18 -7 12 16 25 27 23 16 21 27 30 35 44 52 54 42 41 49 56 53 57 59 48 26 12 23 26
55 5 -22 -0 54 72 65 63 57 51 38 24 20 39 16 37 12 -0 15 11 24 24 23 26 27 26 25 28 31 31 38 48 55 55 55 52 49 45 54 50 18 20 24
32 21 -2 -3 65 68 60 51 47 43 43 27 21 34 13 2 61 36 34 30 37 29 28 27 29 31 34 35 34 39 46 54 60 64 53 51 46 34 38 44 34 37 40
27 34 25 36 57 72 53 42 36 35 33 34 22 -10 -33 -17 1 15 42 48 40 28 25 25 26 27 29 23 22 25 29 34 54 56 51 44 48 27 24 22 25 25 19
28 32 38 48 61 57 46 38 33 31 24 23 5 -24 -34 -37 -33 6 36 38 30 13 6 3 7 11 18 18 11 8 11 26 39 44 50 51 51 28 19 15 12 5 14
50 35 35 41 53 58 48 38 29 20 9 4 -9 -21 -43 -63 -49 -10 31 24 20 4 -1 -1 2 4 5 5 12 11 18 23 40 55 55 61 41 23 20 16 12 6 5
45 53 41 41 53 66 56 46 32 17 8 -2 -11 -21 -26 -41 -41 -5 21 21 10 3 -6 -5 -3 2 7 10 12 15 24 23 38 57 67 75 48 33 25 20 19 16 -0
51 46 55 58 70 82 73 59 42 27 22 13 2 -10 -15 -30 -37 -16 -0 -1 -3 -3 3 2 3 6 9 7 10 19 24 28 26 25 40 55 42 39 34 25 21 13 11
60 48 65 76 84 92 89 67 47 34 34 26 16 7 8 -3 -11 -15 -7 -0 9 11 10 15 11 16 37 53 69 77 68 45 51 56 55 55 53 58 64 84 85 69 41
68 70 72 82 93 96 87 82 62 51 48 44 32 28 25 25 21 9 7 12 18 34 23 31 45 57 57 55 62 71 50 57 61 71 69 91 82 85 93 90 103 98 67
100 96 90 104 110 111 99 93 80 68 65 53 46 37 47 55 51 39 35 49 52 57 57 74 79 63 71 61 61 58 57 64 66 75 96 124 121 107 119 126 148 157 192
112 118 101 106 129 119 119 100 91 83 69 62 55 50 64 74 71 58 59 73 85 88 96 88 68 73 71 62 67 70 71 69 86 104 129 173 174 163 137 182 189 179 187
109 132 140 159 143 129 130 109 104 88 75 79 73 70 89 95 72 84 101 105 108 101 92 84 76 74 75 72 71 82 92 113 145 138 147 195 192 192 232 224 202 181 184
85 104 190 189 186 184 150 123 99 93 98 98 95 100 102 87 101 109 123 122 112 94 74 66 66 69 66 62 76 96 100 107 129 138 136 142 188 207 209 204 205 192 212
53 90 168 204 246 216 182 125 124 118 130 118 126 144 139 133 126 148 146 130 105 84 82 71 72 73 78 86 90 87 86 109 143 146 136 130 141 188 192 200 189 191 192
65 119 165 192 231 234 205 179 180 204 210 197 201 203 200 171 134 149 136 112 98 91 69 61 64 66 68 69 69 74 82 108 162 158 143 116 119 119 144 182 166 154 143
81 124 141 187 240 266 270 302 290 288 289 271 279 257 206 173 158 154 122 121 107 93 80 60 62 55 41 57 78 84 74 109 156 160 143 129 130 98 95 141 136 116 111
109 104 158 239 285 357 416 408 379 362 360 350 315 262 239 178 175 155 153 131 106 89 81 60 58 44 27 37 53 74 78 108 132 152 134 131 108 91 91 93 52 56 99
137 142 172 262 322 448 453 428 372 369 387 370 316 274 218 176 185 160 137 120 97 78 52 50 26 51 41 39 35 78 87 98 100 116 122 89 109 93 80 78 45 66 76
118 139 181 255 342 424 460 454 408 380 370 346 307 271 186 215 171 152 132 111 85 47 49 44 46 26 24 19 11 6 46 69 127 91 77 132 118 97 56 103 79 90 93
110 149 191 268 386 461 516 529 473 463 394 340 289 242 244 202 171 152 130 99 73 47 34 28 30 40 36 24 38 28 14 42 63 70 127 94 113 74 80 72 71 77 86
121 167 205 272 376 397 423 423 323 311 265 212 218 226 231 185 173 151 128 95 79 54 52 32 33 30 32 44 41 70 75 95 75 72 96 113 88 92 59 76 65 68 76
169 180 214 259 296 323 337 286 278 285 255 282 250 245 212 193 174 147 119 111 98 68 57 67 64 66 52 51 54 73 98 123 130 161 147 131 83 69 64 44 91 41 37
193 185 203 227 243 244 227 216 251 287 270 271 238 228 193 183 162 145 136 121 104 94 88 81 79 81 77 83 87 89 97 105 130 140 160 125 100 70 102 74 38 54 55

GFSSE_con_3kmhel_021.txt.gz
Helicity
-34 -11 -22 24 44 41 40 37 31 32 34 34 41 52 76 55 27 13 4 3 9 27 58 43 56 46 25 52 61 56 50 57 58 45 49 50 54 61 57 47 43 36 30
15 -17 -19 10 39 44 53 47 40 37 29 26 27 43 54 45 30 10 12 11 12 23 27 34 31 59 71 57 47 51 44 48 49 55 60 56 66 67 59 45 39 40 34
28 -0 -7 -3 41 61 51 46 42 37 31 14 11 32 42 38 15 -6 11 20 23 27 22 15 16 19 41 37 43 48 48 46 43 52 63 54 54 62 66 72 39 34 39
25 8 -13 25 50 56 46 39 34 33 25 15 1 52 47 30 20 14 22 19 28 28 28 24 22 22 29 35 33 36 42 49 64 67 62 61 48 49 51 52 39 30 34
21 1 -3 26 55 53 44 38 32 28 20 24 34 71 3 27 25 22 27 34 45 35 37 35 38 44 50 51 46 50 52 55 62 53 50 55 47 38 28 26 51 31 36
58 11 12 19 58 67 48 37 28 23 23 28 26 31 -22 18 32 38 48 45 37 29 29 33 32 36 38 36 30 35 35 44 46 41 44 40 35 30 19 17 21 32 23
40 20 1 34 63 69 52 38 27 20 16 22 4 -37 -41 -16 -34 -21 38 47 21 21 15 13 19 17 24 21 20 28 26 32 33 40 44 46 44 32 28 24 18 13 10
56 38 15 39 69 64 50 41 30 21 17 9 -6 -37 -58 -41 -36 -9 34 23 15 6 2 3 8 9 13 17 21 22 25 27 32 38 43 41 33 29 22 21 11 6 -3
59 50 32 28 45 54 52 45 36 30 24 8 -11 -29 -48 -40 -25 4 17 8 2 -4 -1 -2 -1 7 7 8 5 10 13 20 21 24 28 32 28 22 19 12 8 8 7
58 47 39 38 36 43 43 52 43 38 37 26 12 -4 -9 -18 -14 12 8 4 2 3 12 14 14 8 40 63 70 66 58 50 44 45 54 47 29 31 43 66 67 49 24
58 40 35 40 43 61 56 46 46 43 45 42 34 27 16 -7 -11 2 22 21 19 22 26 33 55 77 74 74 72 71 57 49 51 51 49 54 55 57 72 76 81 75 73
56 45 40 42 48 67 73 59 49 49 46 50 49 40 32 29 17 26 33 37 30 38 53 81 92 84 66 56 56 65 49 54 56 62 66 85 86 86 89 108 131 138 124
58 60 56 58 66 65 70 78 65 56 60 65 60 57 58 59 49 50 48 55 55 71 79 84 71 68 68 57 56 61 61 61 59 71 104 124 128 134 118 152 164 148 140
65 63 67 71 81 71 74 79 74 72 66 71 69 73 73 76 74 82 83 90 94 85 90 83 61 62 67 61 68 72 70 76 85 95 119 155 136 146 210 174 152 126 151
53 57 67 81 98 93 88 82 84 73 73 76 77 88 90 84 94 104 116 110 100 93 87 78 68 67 69 66 73 83 83 88 101 97 103 152 172 200 167 173 144 145 172
60 59 75 89 112 120 116 95 82 91 97 95 92 100 99 99 124 136 136 125 118 96 87 80 78 64 63 65 78 92 86 80 91 102 106 123 175 173 168 159 155 157 159
76 63 66 93 135 152 142 120 111 113 130 115 103 99 111 139 150 151 155 134 108 95 87 74 69 66 72 70 71 75 72 86 106 124 117 118 123 160 158 156 156 150 139
71 57 60 81 131 162 176 170 152 153 159 156 162 163 185 179 170 163 142 120 101 88 80 75 67 56 53 57 59 64 65 72 123 132 128 124 119 112 126 162 157 144 130
69 54 66 85 108 160 222 216 229 219 237 237 243 216 232 219 180 167 143 115 108 96 80 66 61 48 51 50 50 52 52 79 124 135 140 128 127 121 113 113 130 116 105
74 71 81 115 130 167 298 411 367 328 330 313 303 278 262 226 192 152 147 127 99 92 87 66 60 52 31 32 32 46 67 84 100 118 127 114 117 125 113 92 93 70 85
115 102 101 156 174 290 390 469 391 346 357 370 331 298 274 225 169 145 170 130 108 105 85 66 33 32 39 36 35 61 64 75 85 91 93 97 107 128 96 72 83 69 79
123 122 135 136 171 223 321 415 419 424 371 412 376 354 260 235 156 192 151 125 103 83 80 63 36 16 18 22 3 -12 45 58 102 73 78 127 87 130 108 119 97 99 94
134 131 149 143 189 273 397 560 554 527 482 449 389 331 261 202 196 186 156 122 105 80 59 51 47 33 27 18 25 14 6 38 61 66 91 100 121 95 82 72 64 60 66
142 148 130 149 219 302 369 445 428 401 354 304 319 277 267 201 205 177 150 124 104 72 63 52 35 29 12 40 17 40 38 46 29 30 45 93 88 86 57 44 34 34 26
194 177 165 159 194 268 324 368 375 336 331 355 314 276 236 226 195 170 140 122 102 87 77 64 50 45 38 28 34 38 53 64 75 75 85 90 84 48 36 17 19 -2 5
211 176 163 166 210 260 292 309 315 365 343 341 272 263 222 203 192 167 145 124 111 98 86 77 73 69 57 55 46 45 49 47 49 70 93 86 89 42 62 10 33 39 35

GFSSE_con_3kmhel_024.txt.gz
Helicity
21 37 24 27 32 31 25 29 35 35 32 31 42 54 60 44 23 12 6 14 26 34 58 43 54 -9 9 60 74 53 53 57 52 51 45 45 56 64 67 60 48 50 74
48 30 11 14 21 23 29 34 35 33 30 32 38 62 58 50 35 30 12 21 24 30 50 25 54 86 73 60 47 40 41 43 35 47 51 34 49 66 65 57 46 62 62
39 24 4 13 17 23 28 34 34 28 21 15 22 52 63 63 43 32 31 27 27 30 19 20 15 33 41 32 27 34 34 36 35 51 49 38 47 57 59 53 44 39 42
35 16 8 24 53 44 36 30 27 20 16 14 47 63 56 30 11 29 31 31 37 36 36 33 33 38 34 36 33 34 46 51 53 50 38 54 47 56 46 50 39 29 31
31 20 43 50 58 38 34 28 20 18 13 15 70 52 20 16 21 31 34 42 46 42 42 48 50 49 50 47 44 43 47 50 51 31 59 60 53 66 47 34 25 43 25
35 51 92 64 52 38 34 28 23 20 20 43 67 29 17 11 21 22 36 43 33 32 35 40 42 46 48 44 35 37 50 52 32 41 39 43 31 49 34 27 15 21 24
62 49 58 44 58 51 36 30 26 22 19 24 24 -2 -1 5 -6 -13 36 41 22 20 19 20 25 32 27 23 22 20 19 23 13 27 25 31 31 27 18 21 16 4 -2
44 36 61 45 75 62 44 35 29 23 14 9 -6 -27 -25 -18 -24 -10 36 18 8 10 7 13 22 20 12 16 14 14 15 13 12 22 29 28 45 23 13 15 10 7 1
49 46 43 42 58 61 45 40 34 29 23 6 -7 -24 -24 -15 14 29 23 7 -1 -2 12 17 20 15 21 35 49 56 46 33 13 41 34 33 57 35 37 39 55 46 15
77 67 50 48 36 36 39 44 42 41 35 28 13 10 8 7 16 34 20 20 15 19 25 33 41 59 69 66 67 60 35 4 36 33 39 59 41 40 53 63 64 66 66
65 69 58 49 38 35 40 53 50 47 49 50 48 48 19 0 12 18 59 35 33 39 50 56 70 70 51 63 59 47 8 40 38 44 50 71 55 67 81 99 110 108 101
48 51 53 45 40 42 50 53 41 53 43 41 48 50 35 27 32 47 54 52 50 57 81 81 69 43 36 47 42 21 43 41 48 58 76 85 80 93 121 153 129 112 115
50 53 40 57 49 41 48 50 57 57 55 57 57 61 67 60 57 52 57 51 53 55 64 69 43 65 60 51 44 46 45 42 50 56 96 115 117 116 166 149 131 115 155
56 44 44 50 49 36 47 48 54 63 62 65 67 74 85 92 85 76 79 97 90 84 79 53 57 53 53 49 49 48 45 48 57 68 93 118 140 172 153 145 114 125 142
96 51 38 38 44 47 40 50 61 55 73 69 81 92 98 106 119 124 114 107 107 83 73 64 66 66 68 59 49 48 50 55 62 69 84 147 162 154 148 135 125 148 136
96 70 56 51 47 53 56 63 68 72 80 85 95 107 114 135 146 131 127 134 115 90 75 73 80 69 61 53 47 51 56 57 55 72 83 104 147 148 140 137 133 138 133
104 92 76 59 53 55 65 76 89 106 110 102 107 126 124 128 143 148 146 135 114 90 70 66 64 54 48 46 44 45 45 50 60 73 88 100 100 138 150 144 139 137 131
104 94 75 70 47 50 72 101 119 142 141 121 124 133 133 133 139 155 147 123 101 79 76 70 53 46 46 43 37 38 39 48 69 94 111 119 126 114 103 130 133 124 114
119 116 95 73 42 47 69 102 138 160 188 188 175 157 146 156 158 179 147 112 92 86 82 61 56 52 50 42 32 34 42 53 78 92 116 120 118 106 103 95 96 81 95
135 129 111 88 71 90 108 109 172 221 257 246 234 205 197 194 187 209 139 110 105 89 74 59 55 50 43 34 27 33 55 67 83 91 106 104 104 85 97 91 82 79 52
190 168 127 103 102 131 163 224 255 306 326 318 289 265 234 240 227 193 148 119 114 92 80 63 48 44 37 32 18 41 57 75 79 90 83 76 118 92 77 82 84 80 80
238 192 169 122 117 138 203 169 233 366 413 353 343 352 297 247 232 145 142 131 109 93 81 69 46 25 29 34 26 27 60 66 103 58 108 101 86 108 111 109 105 103 98
223 215 190 157 132 152 153 235 361 446 489 457 373 415 353 290 203 153 147 133 114 91 77 62 51 37 29 33 40 29 18 65 92 63 85 97 100 112 105 94 80 71 70
168 190 181 182 145 170 205 217 283 391 415 402 377 380 393 289 178 179 154 131 116 94 75 61 52 48 23 35 18 46 56 72 67 65 65 20 92 75 81 78 69 62 63
155 158 162 172 162 167 149 166 251 308 368 383 385 431 392 258 184 173 148 131 119 99 82 64 51 51 49 41 45 47 51 53 57 79 69 69 78 70 58 52 34 20 24
170 172 167 162 148 129 135 157 227 359 376 400 434 398 335 227 188 165 151 137 120 101 82 69 64 60 58 60 59 60 64 71 73 78 74 76 77 56 70 56 38 32 42

GFSSE_con_3kmhel_027.txt.gz
Helicity
62 75 43 49 36 22 13 12 13 20 34 51 68 85 77 69 59 43 29 27 39 43 51 67 65 5 41 81 87 83 59 46 43 45 35 16 31 54 63 59 43 51 78
70 65 54 44 30 11 8 10 15 21 23 34 59 79 79 71 59 37 35 33 37 50 55 46 80 97 79 79 60 46 40 38 33 37 41 23 30 55 62 53 47 45 61
65 67 45 45 33 12 8 10 13 13 15 20 35 80 98 82 53 51 47 44 45 48 50 36 35 54 52 30 26 30 34 37 42 44 25 20 40 60 57 62 69 47 47
61 65 44 49 35 33 23 17 20 12 5 -8 25 57 56 61 63 51 45 46 46 51 61 53 40 38 45 42 41 41 42 45 39 28 37 55 43 68 50 43 48 49 26
42 41 93 60 74 54 33 20 16 17 14 7 39 32 26 41 49 50 43 49 50 53 58 61 57 54 51 46 49 43 38 39 24 8 40 55 22 62 46 35 27 28 35
42 47 130 131 94 77 43 22 14 16 15 33 31 23 18 23 25 31 48 51 40 38 43 43 46 41 39 31 27 22 29 24 6 9 34 37 26 51 38 35 23 18 15
100 132 117 118 79 72 51 35 21 20 25 35 27 21 10 4 -4 3 38 41 23 20 16 16 18 19 14 15 16 21 19 12 2 20 24 38 69 47 36 31 28 21 11
96 119 110 74 89 75 48 42 27 24 25 17 7 0 4 -10 -27 -19 36 26 12 10 6 11 16 17 15 17 15 9 9 5 9 31 37 36 64 42 36 39 47 45 35
95 90 74 53 92 89 57 48 31 24 18 21 12 4 2 -11 -4 50 41 23 13 12 11 16 17 12 33 53 48 37 19 7 1 53 37 67 69 51 60 62 58 57 51
85 82 80 76 70 73 55 58 44 36 28 22 27 35 15 14 38 48 39 35 29 27 30 34 46 51 49 50 44 28 8 -11 17 32 51 71 68 58 75 88 89 90 100
72 72 63 79 71 79 70 67 57 52 44 36 42 43 21 5 20 26 73 59 50 51 47 55 49 40 31 41 36 19 6 51 47 59 87 92 75 72 102 122 109 101 102
49 51 63 69 82 108 102 105 51 52 41 35 41 47 19 33 54 76 73 62 66 69 70 54 30 11 24 35 40 21 51 48 47 60 92 115 103 120 137 134 120 109 137
58 62 56 61 71 120 103 98 74 68 48 43 44 54 48 69 77 62 64 53 59 44 50 29 12 53 49 47 47 52 47 43 57 71 117 118 123 171 168 129 118 123 137
80 68 60 57 67 81 100 77 52 57 71 64 63 59 71 74 70 71 50 143 116 87 62 35 61 51 35 41 48 46 45 46 63 85 131 142 151 152 164 136 124 139 122
105 93 75 56 61 55 62 38 38 52 83 75 77 65 71 83 86 84 156 139 126 99 77 64 59 51 55 48 46 47 53 57 66 76 109 139 145 147 148 136 125 126 112
101 103 89 67 60 38 43 37 39 59 74 92 87 83 89 100 123 161 152 137 139 111 89 75 76 65 58 51 46 47 54 62 56 68 97 101 128 136 131 128 125 118 112
81 106 107 95 69 61 57 51 52 62 72 100 97 98 97 157 158 148 159 146 125 103 83 77 69 61 47 44 37 51 51 54 53 57 72 108 75 106 114 116 117 108 107
103 130 124 143 103 73 57 57 67 88 103 137 119 128 117 150 137 145 157 150 107 101 93 90 75 49 40 43 41 47 41 44 48 71 89 93 107 93 80 103 92 86 92
72 96 123 146 117 92 75 86 72 81 159 161 175 159 187 145 148 152 163 140 95 110 101 84 75 58 49 43 30 39 53 52 67 80 80 90 93 89 99 87 74 60 69
104 101 103 123 128 118 114 100 109 159 238 168 248 253 180 172 194 204 169 127 115 105 97 81 68 59 49 35 25 30 59 59 77 67 73 82 78 87 89 99 74 84 76
166 161 156 153 155 167 183 160 186 275 361 353 291 241 214 214 223 204 189 151 109 111 107 80 67 58 50 37 10 32 32 63 57 70 75 72 99 83 92 92 98 92 90
195 200 231 197 197 183 206 188 234 348 447 374 344 303 285 279 271 237 183 144 128 123 106 83 65 46 40 33 9 -14 32 53 53 64 73 121 94 120 112 117 109 103 111
116 185 227 219 226 216 203 266 371 539 580 514 391 428 380 337 329 283 209 163 133 123 105 86 72 55 38 33 33 18 11 58 92 78 76 105 99 112 119 105 90 100 106
96 154 193 238 263 252 241 304 343 455 460 427 464 445 403 359 370 268 223 165 156 130 102 81 69 54 22 43 11 44 63 97 83 92 137 104 94 115 81 102 98 95 83
124 137 214 225 239 269 279 235 303 294 261 403 470 432 400 406 366 346 197 160 155 135 104 87 69 60 54 47 46 48 49 53 50 87 90 81 115 113 122 99 95 80 63
138 190 239 211 208 254 264 295 263 226 301 495 509 517 435 400 349 255 176 183 153 135 107 94 82 67 62 61 61 60 70 92 112 132 121 105 102 100 104 114 99 77 59

GFSSE_con_3kmhel_030.txt.gz
Helicity
87 89 73 52 46 32 24 27 30 31 36 54 69 85 104 102 85 68 45 62 66 62 62 90 51 45 74 98 79 48 43 50 60 68 54 33 25 45 57 57 63 80 61
127 86 66 56 44 29 22 17 19 23 28 39 59 83 88 83 68 58 42 51 62 68 66 79 99 84 102 78 56 41 33 33 47 40 31 19 20 41 52 46 65 51 49
107 94 59 62 50 39 30 23 15 7 12 18 33 65 81 73 63 54 45 44 50 53 63 70 64 59 52 43 33 33 35 38 39 30 41 46 20 53 46 42 48 47 29
105 72 66 69 60 51 43 32 21 6 -1 2 55 58 57 52 51 53 47 46 44 51 62 61 60 52 48 43 33 29 32 30 20 20 40 60 55 56 47 39 34 25 20
116 36 73 69 72 62 50 33 24 11 -3 3 26 23 18 21 41 43 44 46 48 50 52 55 52 50 46 42 36 31 31 24 14 12 17 40 32 52 43 36 26 16 14
46 111 74 76 94 83 56 37 31 22 1 26 15 13 19 10 14 27 39 38 39 40 42 47 44 43 37 31 23 18 18 9 7 39 16 23 42 46 39 34 24 22 20
219 169 108 128 134 98 67 56 43 31 30 30 21 17 1 -3 -7 -1 37 31 26 28 28 29 32 30 22 13 7 4 0 -3 2 19 32 51 42 42 38 35 34 35 33
150 148 149 173 142 97 74 61 49 39 35 35 34 27 18 -5 -25 -7 28 20 15 15 17 19 20 14 7 2 2 2 -2 -8 -3 5 59 55 67 56 52 59 65 60 58
119 135 129 135 117 100 83 74 54 41 41 26 35 20 13 -14 -19 35 32 21 14 13 17 15 7 3 18 18 18 11 6 12 48 39 101 56 64 57 64 68 79 94 109
144 121 111 140 131 112 84 86 69 50 49 47 43 41 25 35 59 59 48 35 29 24 25 29 26 22 20 19 22 14 11 30 54 84 71 67 87 73 83 96 102 108 103
128 107 107 131 111 101 95 93 81 62 55 51 54 43 30 21 28 40 47 55 46 43 43 34 23 13 11 13 9 18 45 51 70 71 58 110 95 109 124 117 114 135 149
111 91 133 90 76 89 119 131 92 84 73 65 55 44 12 6 50 79 78 66 64 66 53 32 11 8 24 19 19 33 52 64 79 84 80 117 109 127 147 127 128 147 150
96 93 93 132 123 179 164 126 86 89 57 50 54 67 7 94 138 106 80 74 71 60 50 31 30 38 55 47 54 60 50 63 89 99 109 134 162 170 138 113 122 132 111
102 106 122 99 208 204 191 118 84 97 52 49 58 80 61 126 101 87 89 83 62 70 78 46 70 60 59 66 54 57 58 54 80 97 123 145 148 153 132 112 120 113 100
118 118 146 121 182 215 189 125 30 83 56 67 80 81 116 111 77 44 151 205 163 114 83 86 104 94 81 68 67 66 71 82 99 104 95 130 134 132 120 108 100 95 88
121 187 179 137 194 193 166 98 34 74 106 105 143 100 93 79 72 180 266 212 160 130 120 135 125 104 88 73 62 59 70 83 90 107 79 79 106 112 104 97 91 92 89
100 152 200 184 207 150 152 102 43 92 149 161 144 127 86 120 218 271 232 183 129 118 112 139 110 95 91 71 56 47 73 70 74 87 105 71 63 78 78 82 86 81 78
126 106 166 188 209 161 129 148 134 157 214 203 136 175 119 235 287 262 221 164 131 112 149 153 129 104 87 74 53 44 55 59 57 95 114 115 79 69 75 79 75 72 69
151 131 142 203 225 201 173 175 132 159 239 214 152 212 160 302 239 231 192 176 151 158 166 128 128 106 88 65 41 35 59 58 54 92 95 105 94 104 83 67 69 67 56
142 175 171 207 249 230 197 159 133 164 278 272 227 275 403 343 251 233 200 188 182 193 158 141 112 93 77 57 33 24 47 38 68 82 82 91 82 106 82 86 68 83 104
191 194 212 251 264 279 269 229 255 281 374 335 295 405 517 375 312 245 226 256 222 169 135 124 110 95 93 67 44 31 23 47 42 39 54 77 107 91 82 76 106 87 75
190 232 211 238 301 281 253 279 285 426 428 440 481 528 489 367 294 280 314 288 253 225 175 145 100 82 69 68 43 21 34 35 40 33 81 108 113 110 124 121 100 78 87
155 121 187 262 292 288 285 331 538 646 623 622 606 608 505 384 326 341 337 349 282 221 171 144 112 92 68 50 51 32 43 31 41 89 88 119 104 112 113 90 81 87 115
154 171 118 206 236 318 347 480 536 575 566 585 612 655 490 389 392 381 394 343 297 257 195 144 111 89 69 54 43 50 55 64 62 69 112 114 96 135 111 107 97 101 110
121 164 183 124 204 227 322 517 559 581 584 618 628 586 476 448 428 426 413 374 326 248 202 167 124 106 88 64 53 49 49 56 60 92 86 96 103 100 104 102 105 103 93
119 131 172 196 196 252 335 496 596 585 599 561 563 544 528 483 506 455 420 369 349 274 228 174 131 110 95 90 78 70 68 73 87 122 141 116 107 97 119 106 98 94 96

GFSSE_con_3kmhel_033.txt.gz
Helicity
58 59 60 49 59 63 59 58 59 59 69 77 93 83 87 86 76 65 51 76 67 58 74 51 41 57 85 70 46 56 62 68 52 48 55 59 58 55 49 55 63 47 45
102 53 62 54 65 70 62 60 55 52 54 67 83 82 85 84 65 49 47 47 65 65 83 86 68 75 72 51 47 37 45 54 57 65 60 42 35 48 54 56 60 41 42
124 60 57 61 73 76 69 65 56 45 30 30 50 70 68 65 48 43 39 29 37 52 68 58 61 54 40 44 33 31 32 39 47 54 36 19 21 54 58 49 48 46 28
140 68 54 63 81 79 65 54 37 25 14 6 47 60 59 53 40 38 33 32 32 40 54 61 60 50 55 44 31 26 30 35 33 32 35 7 34 62 60 41 33 35 34
135 63 53 67 68 69 64 62 36 18 19 40 30 16 18 24 30 35 34 33 37 38 44 52 52 45 38 29 29 22 29 22 20 26 18 33 40 57 51 39 28 22 16
99 86 59 62 76 89 71 65 51 32 20 29 20 9 10 9 19 24 26 23 25 30 35 38 40 35 29 24 22 18 16 9 11 40 10 29 30 41 39 27 26 24 17
109 86 60 72 102 101 72 67 52 48 48 29 21 14 7 1 1 7 11 12 16 21 23 23 20 20 18 18 20 16 17 23 23 50 39 34 36 40 49 52 60 71 61
115 80 61 96 116 109 82 77 62 60 66 39 29 11 12 -1 -7 17 7 3 2 6 10 10 12 11 9 10 10 7 13 35 51 46 51 51 59 46 52 57 69 85 97
189 142 118 114 109 100 81 77 68 71 72 66 56 39 9 -14 -10 27 14 11 11 11 13 13 9 15 18 12 9 9 28 54 58 73 73 66 57 65 65 85 104 95 112
149 137 168 161 138 117 81 84 74 73 86 77 73 45 14 2 28 52 25 16 15 17 22 31 30 19 15 17 23 34 52 97 72 73 74 69 81 97 104 95 91 118 112
136 111 161 178 154 126 107 96 87 95 85 85 81 62 45 38 56 57 34 35 27 27 25 25 22 23 28 22 31 50 71 75 71 61 63 102 123 131 121 109 140 136 117
155 125 143 147 144 127 125 127 116 107 85 86 57 51 54 46 47 48 47 43 41 43 34 29 34 35 35 30 41 63 63 89 72 74 77 88 102 151 130 121 131 131 104
171 137 139 112 119 153 160 148 137 112 88 69 66 40 57 53 70 77 63 51 43 50 41 49 46 45 51 54 60 64 69 93 81 88 107 136 142 152 109 110 122 102 94
128 161 144 138 129 135 179 158 137 129 97 81 68 47 92 97 119 92 88 72 58 51 60 64 56 72 81 80 77 81 87 96 81 88 101 131 140 137 110 104 98 89 88
113 102 169 154 187 228 222 173 164 127 103 73 72 43 106 112 102 117 121 91 71 69 86 94 96 105 97 92 81 79 88 108 79 84 78 115 113 119 105 92 87 87 88
137 158 137 235 216 269 236 178 192 138 87 97 96 47 92 89 98 139 166 146 120 130 149 127 122 112 107 86 93 78 79 99 84 80 77 80 97 97 93 94 92 89 90
126 159 218 239 246 264 241 194 162 139 110 110 82 82 101 108 142 206 212 169 142 172 181 161 156 129 122 101 100 79 71 76 94 82 79 75 78 84 85 88 85 84 81
201 156 190 243 318 269 257 216 157 112 137 192 157 142 123 155 245 252 236 184 191 205 170 187 169 164 132 107 80 75 69 66 78 91 77 73 69 69 76 79 84 81 80
135 198 185 232 302 317 267 223 167 141 155 261 242 232 230 267 311 286 238 210 230 231 198 184 185 141 131 103 73 68 53 58 57 78 89 75 60 66 56 48 61 96 95
108 148 198 228 282 295 301 278 233 243 214 251 290 261 328 345 334 309 259 237 233 253 224 205 188 168 116 96 73 64 42 42 45 54 61 54 71 82 71 65 84 73 79
133 134 162 199 292 362 350 308 249 315 267 289 307 329 379 377 358 309 273 264 235 244 197 189 191 165 142 102 90 81 58 43 36 21 38 66 73 71 67 87 71 60 63
114 125 139 151 209 320 376 375 374 346 366 336 371 405 428 447 384 368 320 289 267 276 229 202 185 166 127 113 95 88 90 63 37 39 54 66 80 92 95 85 73 68 58
96 113 127 146 147 215 338 476 606 590 531 508 454 493 505 520 430 398 364 345 314 304 246 212 174 156 136 109 93 76 89 66 55 52 70 91 124 119 124 116 97 75 68
91 101 110 123 143 138 279 494 516 521 520 506 540 600 626 496 479 418 433 394 354 310 268 228 207 159 140 113 95 89 83 77 68 74 82 100 134 158 129 100 89 92 88
119 132 150 123 150 186 188 363 466 536 574 640 645 681 632 564 526 538 460 426 367 321 290 277 250 201 147 117 99 92 94 92 105 114 92 109 141 110 98 118 99 100 123
225 207 144 133 145 173 197 328 400 618 683 695 657 660 613 577 536 547 521 430 409 336 314 308 261 206 208 148 108 96 91 97 103 123 116 119 108 87 118 100 100 118 123

GFSSE_con_3kmhel_036.txt.gz
Helicity
38 33 44 38 52 66 65 67 73 75 90 86 104 84 82 77 68 61 72 76 78 58 48 24 30 75 66 26 30 56 59 73 86 84 89 84 85 70 60 57 52 41 42
68 60 49 44 55 72 73 84 84 80 90 91 87 86 79 69 55 44 45 55 60 72 54 52 49 59 31 41 42 45 55 69 81 81 69 52 55 59 56 53 45 38 43
103 71 46 44 52 70 79 81 88 79 81 91 81 72 65 61 50 42 32 32 42 54 73 61 64 51 21 25 27 27 43 61 64 69 46 39 42 58 52 43 43 42 31
115 78 50 53 53 50 58 69 79 69 55 59 64 59 50 39 34 35 26 17 30 43 49 52 37 37 41 39 30 34 39 49 57 56 43 21 40 70 63 44 38 36 30
137 88 58 46 44 53 65 56 57 52 31 54 57 55 36 24 23 23 22 20 24 33 40 43 39 40 36 30 24 22 26 38 48 23 42 3 47 54 51 41 33 25 14
144 111 62 45 50 59 62 55 53 52 66 54 42 29 23 18 13 15 18 18 18 21 27 30 32 27 20 19 18 21 29 42 42 31 8 0 16 39 36 37 36 27 18
147 113 67 49 56 67 69 63 61 65 58 46 30 32 22 13 14 7 3 3 3 5 7 11 14 15 14 14 17 22 29 50 34 33 30 20 21 37 47 52 54 59 43
144 108 70 54 61 61 57 57 51 56 71 60 51 29 12 12 12 3 -1 -5 -8 -8 -5 1 9 12 11 13 27 41 60 63 52 61 43 35 44 45 51 66 84 94 109
125 116 73 59 64 66 56 58 56 73 72 69 51 30 17 0 5 7 1 -4 -7 -4 0 5 10 16 21 26 48 60 52 54 65 61 56 58 59 68 80 93 88 96 108
117 104 86 87 93 83 73 61 54 91 86 79 74 57 25 1 8 24 7 -2 -5 1 5 3 20 25 30 46 55 77 84 92 80 70 62 57 83 113 97 86 119 117 121
156 136 139 132 132 117 99 75 70 102 112 110 89 56 21 17 39 54 22 14 7 10 16 21 31 35 38 53 62 89 77 65 74 72 67 116 125 136 106 133 159 151 102
163 150 139 144 149 143 119 107 100 103 108 112 88 80 60 61 86 65 50 35 29 31 32 35 45 43 48 48 64 91 66 71 78 73 71 95 145 143 112 132 140 116 100
160 151 138 142 153 169 154 130 115 118 114 106 99 91 95 74 75 81 69 48 45 58 56 63 64 61 60 59 69 81 77 85 89 96 111 141 153 137 102 122 93 94 92
169 173 145 134 160 166 171 170 137 136 128 122 101 99 127 98 75 86 89 67 67 74 81 80 82 81 85 79 73 86 81 83 88 94 105 137 130 116 104 100 92 92 90
169 152 169 163 169 183 173 159 155 147 144 115 118 111 128 111 92 106 89 83 77 95 88 95 106 111 110 98 91 88 85 89 89 86 89 122 117 111 108 100 93 91 88
150 193 202 175 178 208 194 180 157 148 144 139 136 124 135 125 121 143 108 87 92 95 97 123 122 121 124 109 109 101 85 82 82 82 78 89 110 105 102 101 95 83 80
123 169 253 212 210 237 223 215 202 165 155 145 125 116 135 123 144 154 138 139 129 122 151 172 168 157 150 132 124 104 93 79 68 73 73 82 91 102 92 88 87 81 79
167 149 215 244 262 251 245 240 229 194 193 175 116 84 90 106 160 182 174 162 184 170 182 186 184 188 167 145 120 108 91 78 71 67 69 66 64 67 71 73 77 82 86
132 195 186 258 317 281 271 262 243 228 204 206 137 84 77 141 206 229 213 225 233 213 210 209 188 168 159 146 122 110 93 77 74 73 58 49 40 51 53 53 78 91 93
91 130 192 200 271 303 322 312 307 281 250 232 159 151 185 211 249 270 277 290 262 258 244 216 197 190 165 150 144 127 101 83 64 64 50 52 46 51 56 67 73 77 84
147 146 161 178 222 345 376 375 324 258 283 276 210 215 290 308 295 313 315 333 295 276 244 233 218 187 183 151 163 149 121 99 70 51 54 60 67 71 77 82 81 83 78
102 142 133 161 183 293 353 354 366 332 328 309 275 294 352 361 375 343 341 350 325 316 267 230 198 200 181 158 156 162 145 114 92 82 72 76 92 98 118 116 97 82 74
95 113 127 147 166 171 264 387 502 463 487 473 393 357 370 421 423 358 334 375 373 348 281 227 200 193 194 176 153 149 168 133 117 100 105 120 128 137 143 153 130 119 104
66 75 90 125 146 116 190 337 394 349 403 389 396 454 477 440 438 445 419 407 424 383 305 252 220 213 215 200 191 172 158 135 117 110 99 112 149 159 153 127 127 134 142
111 116 105 87 107 156 169 240 310 309 372 500 554 523 492 494 431 440 441 444 442 420 329 296 264 234 230 229 191 166 162 153 148 148 125 127 141 149 133 144 133 175 201
100 115 136 129 108 99 153 222 241 265 483 550 559 515 515 531 522 479 473 477 476 487 417 329 286 254 258 250 191 201 170 131 120 138 140 131 131 126 160 143 167 197 194

GFSSE_con_3kmhel_042.txt.gz
Helicity
11 5 37 47 25 21 30 53 80 94 112 112 111 115 109 103 93 81 75 59 46 36 36 17 41 36 46 62 70 93 69 76 79 92 89 86 76 72 66 60 45 33 48
45 30 47 41 17 17 28 48 73 91 90 80 79 96 96 81 67 52 41 25 2 8 -18 -18 33 48 39 29 42 61 81 77 78 70 74 68 51 50 56 47 34 30 41
91 65 56 40 22 21 13 49 62 82 77 70 90 61 57 52 44 31 17 11 7 -6 -9 24 65 42 21 16 20 41 57 67 67 53 52 34 33 47 41 33 37 33 28
103 81 51 29 21 14 16 46 59 77 76 71 91 72 45 38 36 25 20 29 51 71 81 86 52 31 21 21 34 34 34 41 42 33 34 39 25 58 52 42 35 32 24
111 80 46 34 39 26 30 40 52 56 69 72 72 57 41 39 36 30 27 26 29 34 40 34 30 29 24 32 32 26 27 29 24 23 20 25 28 35 47 44 36 28 27
101 86 54 58 58 52 29 34 35 51 63 65 64 53 31 29 32 31 26 15 5 15 23 20 18 22 25 30 22 18 16 16 13 8 4 2 23 65 62 66 66 61 72
104 90 71 69 60 46 22 26 26 27 43 49 60 38 29 30 28 25 20 7 3 4 7 11 14 15 16 18 13 12 14 14 15 17 0 -8 -7 55 67 77 97 103 111
102 103 85 78 56 42 21 24 28 19 46 51 40 31 31 34 35 27 20 15 6 5 7 11 18 16 19 17 16 12 19 31 32 21 10 -1 25 52 67 84 91 106 105
102 121 97 85 58 50 31 25 20 45 55 42 30 29 34 24 26 27 20 16 12 12 17 23 24 21 24 26 22 20 37 48 41 29 29 22 59 60 63 86 92 84 97
112 97 95 82 83 67 50 37 35 68 56 34 31 34 38 49 27 13 12 11 16 15 23 28 32 32 44 46 47 59 63 62 47 42 40 41 76 62 87 111 115 94 93
71 81 99 94 70 70 65 54 48 55 73 47 38 43 48 39 32 32 19 8 17 19 25 24 47 52 60 63 66 69 71 52 54 56 58 94 79 84 122 127 125 111 86
67 48 64 77 81 79 80 82 80 74 91 67 56 51 63 56 47 48 39 24 25 32 39 50 63 65 61 50 53 64 55 59 64 64 66 115 97 94 118 99 105 108 106
72 73 75 53 67 97 107 105 104 108 114 98 80 71 70 68 61 71 64 48 52 64 63 78 83 67 61 62 66 69 67 70 73 79 81 126 102 98 101 85 88 90 83
96 93 86 77 67 98 124 124 120 140 132 122 104 94 96 87 91 104 90 81 76 80 83 84 85 89 86 83 77 79 79 78 81 92 115 138 103 94 85 81 77 76 73
92 110 91 96 87 121 139 138 146 145 143 126 130 127 128 115 118 133 117 110 101 101 91 91 97 101 97 94 88 86 87 91 93 98 114 132 113 96 86 81 81 76 71
124 122 130 107 127 133 161 157 161 160 155 144 145 147 143 143 142 142 136 120 119 103 101 102 101 110 114 102 104 98 94 94 99 103 108 112 114 97 92 85 78 75 72
160 179 187 171 152 157 173 192 184 183 175 158 148 161 162 162 157 148 140 140 122 120 127 134 136 136 142 132 130 117 104 93 96 102 104 107 108 101 89 81 77 75 76
159 197 188 191 189 177 187 221 224 214 185 177 173 163 178 188 178 162 157 145 137 149 152 159 172 170 150 123 121 116 114 96 88 90 95 98 93 97 91 87 78 78 91
144 176 203 219 226 224 224 253 250 227 213 207 200 175 172 209 205 195 178 138 164 174 180 206 201 174 155 135 121 123 112 101 88 94 93 93 88 86 81 81 84 94 97
159 183 192 217 204 210 249 265 272 255 213 226 215 180 194 194 213 223 198 159 197 220 214 227 229 211 163 147 150 145 127 110 103 99 95 95 92 92 93 95 92 94 100
167 197 231 236 241 248 281 265 227 225 244 254 256 212 217 204 217 224 200 178 223 247 230 227 263 216 201 183 189 152 136 123 111 109 110 101 98 104 107 107 102 103 95
129 153 177 202 214 242 295 307 327 273 244 281 287 248 239 260 243 239 231 230 237 259 255 278 303 268 228 182 178 176 134 129 135 138 128 113 105 127 133 130 125 124 115
97 117 149 170 151 152 214 323 424 394 383 334 304 253 266 323 287 261 268 298 260 275 260 277 296 307 296 207 192 190 167 125 158 165 154 145 138 146 154 157 157 149 130
141 124 115 160 200 191 191 248 288 305 332 336 314 287 309 367 343 295 308 319 308 316 291 295 303 338 311 281 241 215 228 197 169 163 168 174 165 161 172 177 168 153 146
107 98 97 96 163 221 194 204 258 246 248 301 278 299 313 347 373 332 345 328 329 353 328 347 350 333 308 340 344 321 289 272 248 249 207 182 176 180 191 184 175 168 166
123 131 140 112 106 101 154 188 231 206 213 271 286 308 369 373 373 333 336 335 351 386 387 381 356 333 308 298 343 346 341 304 298 294 289 264 220 169 182 178 183 176 184

GFSSE_con_3kmhel_045.txt.gz
Helicity
33 21 -2 28 8 -6 9 31 49 64 89 86 85 96 99 97 88 85 70 52 27 18 5 15 37 25 45 65 77 71 78 68 84 88 83 71 60 51 54 44 38 41 49
48 34 50 45 15 -1 10 43 62 77 98 94 83 87 88 76 63 50 31 13 -2 -19 -58 14 41 42 25 32 46 62 59 63 59 62 55 43 31 46 47 43 30 43 46
76 66 56 51 22 12 1 50 62 65 67 64 65 60 61 50 37 23 15 -4 -22 -30 -24 43 72 36 18 19 18 39 57 55 44 49 43 44 47 39 38 41 42 32 28
80 63 49 47 28 12 19 39 60 60 52 59 66 44 24 22 23 19 28 38 42 38 86 84 55 25 23 28 24 27 32 39 41 42 43 41 39 44 35 27 22 22 16
65 58 55 40 22 19 12 29 47 50 50 57 70 42 16 14 10 3 19 34 49 65 63 56 39 28 29 22 19 22 23 25 25 20 29 37 34 17 30 26 17 18 23
63 64 58 28 29 31 44 38 28 37 46 41 50 38 16 11 5 5 5 -0 3 28 30 20 20 25 19 13 10 10 14 13 10 11 15 17 26 50 55 57 58 71 66
56 60 56 44 56 60 47 34 23 33 42 33 46 35 17 17 17 10 5 -7 -7 2 8 12 18 19 15 7 5 8 13 18 14 10 7 7 27 53 63 77 100 105 98
60 52 57 65 63 55 45 36 22 24 35 38 40 25 17 16 14 16 13 7 3 5 14 23 26 19 15 11 11 15 21 22 17 17 13 10 41 50 67 86 89 89 97
70 69 55 48 55 49 39 35 12 9 33 53 37 30 24 27 20 10 12 13 13 15 20 21 21 20 20 16 16 26 38 34 26 24 22 20 47 43 63 79 84 92 91
61 59 60 61 52 40 30 40 28 10 74 61 36 33 48 36 25 22 11 5 14 20 28 22 29 30 32 31 36 50 50 43 36 33 36 44 50 70 87 92 81 80 78
59 53 63 64 49 44 40 34 35 72 72 56 45 40 52 31 29 29 24 18 16 19 33 24 43 49 56 54 55 57 43 32 35 43 45 63 64 92 102 93 86 74 75
59 40 36 47 50 58 59 51 46 66 57 54 54 52 42 40 38 42 40 39 34 44 41 50 63 65 46 38 41 48 43 46 50 61 66 84 74 98 88 74 83 81 68
25 42 33 33 42 53 59 63 62 83 97 73 73 73 67 61 53 52 58 57 62 72 75 74 64 50 46 43 47 50 57 60 64 68 75 99 79 95 74 74 76 69 63
49 42 40 39 50 51 58 74 73 96 101 97 87 82 94 81 66 60 68 74 77 85 93 81 69 68 68 60 56 59 64 68 75 89 98 121 94 104 72 74 68 63 61
43 47 68 54 55 68 70 80 87 89 93 96 93 95 99 92 78 73 77 91 92 99 99 99 90 86 81 75 72 69 75 85 91 100 100 126 113 96 75 71 69 61 53
63 53 72 78 83 99 99 93 95 97 87 93 100 100 100 101 91 87 93 101 105 99 104 101 99 102 98 91 91 84 90 92 94 101 106 103 118 96 88 79 68 60 54
69 71 89 107 116 119 112 109 120 115 102 101 109 106 110 107 97 105 108 121 112 111 118 128 128 127 124 115 120 107 101 99 100 100 105 108 110 114 97 80 72 68 68
120 99 86 137 141 144 151 157 166 137 124 120 120 111 116 117 109 116 133 134 126 140 136 131 139 142 141 125 119 109 105 105 102 102 105 107 112 115 110 93 77 82 86
126 132 124 116 116 128 152 180 165 150 168 155 166 137 117 132 128 120 131 134 146 165 155 145 164 158 152 137 128 115 114 113 105 105 102 106 109 111 112 97 99 99 92
121 121 141 162 128 132 177 193 206 182 165 169 159 154 154 157 150 148 138 125 156 179 174 178 176 181 160 164 152 129 120 117 111 105 104 114 110 110 108 107 98 99 100
147 143 147 164 178 194 220 243 229 206 182 194 180 169 163 190 174 174 167 148 158 172 184 184 220 196 205 203 198 150 119 117 106 110 120 124 122 117 111 110 109 101 102
132 168 185 193 187 216 262 274 269 238 227 189 164 174 181 221 239 225 193 185 175 185 187 219 242 272 231 217 207 179 118 112 123 129 138 139 137 142 127 121 124 121 117
174 199 188 168 177 194 184 244 307 325 296 234 224 186 195 239 269 273 234 242 233 231 242 254 270 275 296 232 210 189 151 115 137 162 154 163 161 162 154 153 153 153 144
236 197 180 159 151 146 163 198 204 267 297 307 304 252 200 207 254 288 266 272 289 289 257 287 307 302 302 306 250 183 207 211 159 139 165 169 172 172 173 192 193 196 184
154 159 145 137 140 145 180 229 200 186 187 218 246 220 218 221 227 263 262 279 305 307 277 315 349 326 315 303 346 299 281 289 293 251 228 216 204 197 203 207 203 205 199
129 134 161 177 171 152 132 155 217 200 180 215 219 198 205 239 278 273 286 298 295 326 326 346 368 348 340 328 326 313 331 296 302 321 300 279 238 221 232 254 240 210 211

GFSSE_con_3kmhel_048.txt.gz
Helicity
50 46 7 14 17 -0 10 27 27 47 75 77 68 76 80 74 66 49 32 27 17 6 4 20 24 43 40 46 54 69 78 62 55 60 57 42 34 36 37 31 6 50 60
60 53 26 37 24 6 -3 21 43 71 77 80 65 57 55 50 48 28 11 -11 -25 -37 -14 39 35 25 25 36 42 47 52 46 46 44 21 18 29 36 39 34 37 49 54
69 58 45 47 22 -0 1 39 63 75 64 69 46 40 34 21 8 8 -22 -37 -17 -28 5 58 55 23 22 24 23 33 35 37 34 14 -21 26 31 26 32 40 30 32 32
57 50 35 50 24 7 35 39 49 52 48 51 48 29 15 9 13 14 22 21 8 -3 61 76 46 21 28 29 22 26 32 29 24 1 25 39 44 36 28 24 20 18 12
45 33 55 44 22 13 38 32 41 39 40 51 58 32 12 9 16 34 42 65 69 95 74 50 25 18 25 21 20 23 24 25 14 7 36 39 27 39 25 21 17 14 -12
37 40 74 56 24 22 41 37 30 31 35 39 49 21 3 4 10 26 30 39 41 40 40 29 20 26 22 13 12 16 16 10 -19 22 27 33 47 44 60 53 46 61 50
43 49 57 40 19 36 42 37 26 20 17 36 43 27 7 -1 1 5 -0 -1 12 13 10 10 18 19 12 7 5 6 9 -2 -1 13 21 29 59 59 64 72 80 85 101
44 45 60 50 50 50 53 48 37 23 18 38 44 27 17 13 3 -6 -15 -12 -6 -2 1 12 16 13 8 4 4 5 10 -7 -1 17 19 40 49 58 70 71 81 86 95
38 40 50 47 57 62 51 56 39 34 25 39 54 39 34 33 20 12 -5 -10 -9 -4 7 11 11 8 4 3 7 18 22 -11 4 22 17 39 36 47 61 68 76 67 73
22 36 42 37 37 33 35 38 30 23 25 58 54 54 59 51 36 26 16 7 6 6 16 14 22 15 15 19 24 28 25 -1 23 20 16 51 43 65 82 75 68 70 69
21 28 38 49 48 43 42 46 26 29 69 72 59 60 57 31 34 45 38 33 16 21 33 41 45 43 47 47 43 32 -1 18 25 25 29 52 65 93 94 81 72 67 73
31 27 29 42 50 56 59 45 24 44 42 33 39 57 34 44 46 40 54 35 22 38 55 57 60 52 8 30 37 21 21 28 29 34 66 67 90 97 84 79 78 72 66
37 38 34 34 36 50 59 56 44 46 36 41 38 50 48 57 66 47 56 49 46 45 51 60 55 34 39 39 40 36 42 41 45 49 99 76 95 85 69 69 72 62 57
58 40 37 38 36 35 42 47 46 48 52 51 50 49 64 68 62 62 57 61 54 64 64 57 53 58 55 49 49 52 54 55 55 50 117 86 96 94 69 65 63 60 55
75 53 41 33 21 41 35 49 49 53 61 58 56 60 64 71 69 62 67 71 70 72 74 69 71 75 69 66 62 59 61 65 67 75 97 111 124 89 74 69 67 58 51
80 68 48 35 29 43 49 42 60 58 56 60 59 56 56 65 75 76 72 73 79 81 77 84 89 89 84 76 74 66 76 77 73 76 78 86 113 97 80 72 62 56 52
98 78 58 48 50 43 58 72 65 69 66 57 67 53 52 56 66 79 77 82 83 92 89 100 104 110 104 93 86 84 86 84 83 83 84 90 86 108 90 72 69 68 61
99 91 77 71 56 65 81 116 125 87 82 85 73 76 57 57 64 76 89 93 91 101 113 115 117 120 110 104 111 104 95 93 90 93 97 93 88 81 94 82 72 67 72
93 98 92 85 70 64 80 115 137 124 92 86 101 102 74 75 81 81 88 96 102 116 125 123 125 115 115 119 126 121 111 100 94 103 93 101 99 96 89 110 85 100 84
125 130 130 122 94 88 95 123 155 169 142 104 107 95 90 105 98 103 105 100 108 129 137 156 141 128 114 124 147 136 124 113 106 101 103 104 108 107 99 96 104 101 101
147 145 144 158 153 140 154 187 187 184 173 179 148 110 117 95 92 107 117 120 123 135 142 154 154 150 168 180 187 160 131 114 105 109 113 111 116 114 110 105 102 106 109
146 161 175 173 177 187 193 199 197 192 186 150 157 168 143 122 110 130 128 142 140 155 149 160 181 217 187 208 203 182 157 129 120 115 125 124 124 139 129 117 116 114 127
227 198 178 193 209 216 215 233 248 255 274 239 210 167 146 144 151 159 148 172 202 199 198 208 214 220 250 220 212 195 219 182 175 136 126 139 153 166 151 145 140 144 151
221 213 208 200 190 181 166 180 179 220 228 210 187 171 182 167 174 161 185 184 196 243 207 253 261 256 249 258 266 207 270 287 214 196 220 154 142 157 161 178 170 179 168
158 154 145 143 146 148 135 145 186 202 195 171 158 132 108 112 138 168 164 184 209 248 237 252 283 285 308 292 305 334 258 246 229 270 198 192 172 190 196 215 208 221 221
128 134 131 140 146 146 152 128 106 127 196 220 189 175 147 138 124 128 156 169 193 251 223 233 263 267 327 303 304 303 311 315 257 263 231 250 213 196 237 281 264 240 283

GFSSE_con_3kmhel_051.txt.gz
Helicity
63 68 48 23 16 4 16 23 21 30 55 50 54 53 61 49 36 26 26 20 12 11 25 20 26 33 40 51 52 63 66 66 52 27 37 24 14 23 26 26 12 54 62
84 69 34 31 17 12 2 10 34 50 56 60 61 51 41 34 16 16 8 -5 -22 -16 3 14 20 20 31 39 38 49 50 40 20 -17 -37 -9 11 30 31 37 82 50 61
83 81 46 51 26 11 18 25 44 57 62 69 63 38 25 16 6 -5 -13 -14 -30 -31 24 45 29 17 23 29 30 32 32 28 1 -29 -43 11 30 26 37 32 31 24 28
78 55 42 64 31 11 54 36 29 42 40 36 29 20 11 10 11 10 6 -3 -1 11 66 51 32 23 23 23 27 30 25 16 3 1 13 32 39 28 27 26 26 17 16
75 35 83 63 42 24 41 35 16 17 39 49 37 11 6 13 23 39 59 64 76 79 66 43 31 22 24 24 23 24 22 7 -8 3 42 39 40 34 24 17 32 6 -3
55 62 82 69 54 43 39 39 13 9 30 48 35 14 3 5 23 38 48 59 63 51 41 26 17 20 17 16 17 13 4 -14 -25 20 22 40 53 38 54 71 60 91 42
46 99 73 71 65 45 40 34 24 10 19 38 28 16 2 4 15 20 33 37 32 16 15 14 14 15 12 9 8 4 -5 -27 -21 14 44 57 58 58 70 73 81 87 88
45 69 83 70 57 41 45 38 37 13 9 38 48 23 9 9 20 21 3 1 4 4 5 8 15 14 9 7 5 2 -8 -32 1 25 60 43 50 66 58 59 76 85 90
41 41 55 56 69 73 55 54 41 29 40 44 56 34 26 24 20 23 14 18 7 -1 2 10 11 10 4 4 8 8 -4 -32 -23 33 72 48 44 58 64 65 65 82 88
40 30 47 49 60 56 49 59 60 45 47 50 63 54 55 42 34 36 33 25 25 19 16 18 24 14 11 11 14 8 -5 -25 18 22 73 59 68 82 73 67 59 63 75
32 29 36 42 41 35 37 62 59 52 36 65 61 63 44 19 32 54 55 60 35 29 33 46 39 34 39 34 24 11 -9 3 26 26 84 88 83 95 85 66 63 65 63
24 27 36 47 56 64 65 72 39 42 52 37 27 45 16 30 34 40 80 67 39 34 61 62 51 40 15 36 32 12 4 32 36 41 99 99 94 85 75 76 78 69 56
54 45 37 43 46 59 69 69 54 50 47 26 41 44 15 47 76 60 72 67 61 61 59 62 51 34 28 39 50 28 45 38 45 59 130 106 90 80 68 68 73 61 54
78 67 53 44 53 50 53 53 54 44 45 46 61 47 40 63 65 52 58 67 59 85 43 73 55 44 59 52 49 51 56 52 54 66 152 126 102 97 73 69 66 61 54
86 74 68 55 54 60 46 52 49 51 62 42 60 60 73 73 70 64 53 70 64 70 52 80 68 82 69 67 71 62 62 60 67 84 155 137 135 98 84 75 70 63 58
93 102 90 75 58 38 50 44 61 62 60 52 59 75 78 88 76 80 72 70 75 72 74 83 99 102 89 92 83 74 73 75 81 92 130 115 126 101 81 77 65 55 50
86 67 71 68 66 45 49 56 47 58 67 70 67 63 71 101 107 81 84 89 90 86 72 87 91 117 120 121 107 89 87 81 88 97 108 146 104 110 88 81 69 60 51
152 162 128 95 75 78 73 91 69 68 77 80 84 83 65 64 76 103 124 110 108 104 110 107 117 132 134 145 138 123 107 108 99 99 117 120 128 85 108 90 77 67 69
86 94 107 106 105 80 75 91 113 102 119 87 93 99 85 73 79 99 115 122 121 159 146 132 142 144 151 159 143 155 142 133 109 113 118 119 127 114 99 126 115 86 87
127 135 132 125 95 101 108 105 156 162 136 121 121 131 103 120 114 134 128 117 123 169 191 172 152 172 162 171 149 173 169 160 142 127 117 122 127 131 139 159 137 139 121
138 127 124 126 131 124 137 152 223 174 166 148 144 140 114 123 118 147 168 122 144 162 178 155 166 172 186 205 225 212 195 156 151 153 134 143 133 139 136 161 135 127 146
127 139 135 129 125 141 172 202 211 188 148 183 179 178 203 180 171 183 190 184 172 192 175 184 188 206 221 242 303 220 214 189 167 174 162 153 149 164 146 156 150 150 166
167 185 182 181 190 205 208 238 256 290 236 204 193 214 204 199 230 207 192 207 202 231 227 227 238 241 264 278 269 320 270 269 235 171 181 189 168 173 151 180 169 185 198
169 166 171 159 143 136 146 185 208 242 250 239 205 195 146 134 137 160 195 184 197 232 242 258 284 330 333 300 293 233 253 357 287 247 200 194 197 173 221 183 209 208 247
160 152 137 129 123 112 101 99 131 151 190 210 207 172 151 165 116 140 125 188 196 220 220 232 281 346 386 326 367 342 286 350 349 318 275 251 212 202 215 200 273 273 277
106 105 102 105 115 115 117 115 107 112 121 143 160 190 190 172 171 163 149 146 190 214 222 211 242 292 347 310 317 349 380 418 375 391 343 323 267 237 246 259 294 279 280

GFSSE_con_3kmhel_054.txt.gz
Helicity
65 86 70 61 29 26 20 21 21 26 40 51 49 54 53 46 40 39 28 29 12 15 19 24 29 31 35 49 65 70 71 51 36 7 15 19 28 37 39 68 33 50 66
109 78 74 53 30 25 16 9 32 35 44 41 46 47 41 35 27 16 10 1 -7 -4 17 19 18 24 33 34 34 44 42 26 -1 -25 -39 2 21 33 38 57 52 42 51
77 81 57 32 43 14 33 30 32 35 48 54 51 35 20 13 3 -10 -6 -8 -11 9 43 28 26 27 28 31 37 38 28 5 -4 -35 -65 -5 10 36 39 35 27 24 28
107 65 50 57 51 35 44 34 21 34 44 29 20 22 10 8 4 10 5 11 24 45 49 34 28 24 24 21 21 23 18 10 24 35 11 11 27 34 29 27 20 21 30
64 44 83 73 68 63 48 22 8 16 10 22 17 10 5 15 34 40 43 47 60 57 41 28 22 16 16 18 20 15 1 12 24 14 45 41 27 25 27 45 41 21 22
39 171 106 87 74 54 39 25 24 21 23 28 10 7 5 20 41 44 50 62 65 47 33 27 21 18 15 13 12 4 -10 7 15 29 39 52 32 46 73 88 92 70 70
178 115 90 98 82 55 48 44 34 27 19 28 24 4 3 20 34 42 45 42 42 26 24 24 21 15 11 7 3 -5 -26 -17 2 38 43 37 42 56 59 76 77 71 84
82 60 83 110 91 63 64 53 40 35 22 31 37 16 15 22 32 34 40 40 24 17 18 17 16 11 7 5 -1 -10 -33 -26 12 29 50 28 49 65 58 58 72 83 91
61 68 74 96 86 77 72 63 56 46 42 57 49 26 29 29 34 32 29 33 35 29 24 21 15 9 4 3 -2 -13 -31 -17 15 38 48 31 53 60 63 64 70 88 91
76 71 39 71 86 81 82 70 69 78 59 62 51 50 52 52 44 35 34 35 39 38 38 35 29 21 15 15 9 -5 -22 -12 5 79 65 53 83 79 70 70 68 86 84
69 57 44 80 65 52 66 91 81 76 65 63 57 49 40 25 26 51 20 46 41 40 46 55 51 45 41 35 19 2 -11 11 12 95 73 93 103 92 74 70 68 62 63
61 53 64 68 12 2 50 105 92 75 63 69 58 47 11 12 26 37 76 61 44 35 58 70 61 56 46 41 36 15 19 20 50 118 84 110 107 93 80 79 74 67 60
52 85 59 72 84 95 125 75 61 73 71 48 53 68 -19 -2 91 105 88 69 58 59 77 80 64 46 27 40 58 45 46 60 55 127 98 119 109 95 84 82 76 68 64
57 77 109 155 97 100 106 89 61 97 78 17 -9 98 35 46 117 90 99 79 70 80 63 88 81 64 36 64 80 64 97 71 78 146 135 143 131 104 82 77 76 68 64
91 93 65 90 110 91 105 86 56 67 75 31 65 98 87 54 141 108 92 109 79 93 71 111 88 72 98 87 65 86 107 86 85 150 171 144 150 122 90 80 72 67 64
89 81 97 83 52 69 96 76 79 88 100 106 86 108 83 98 126 130 98 129 107 91 92 132 85 114 138 117 104 105 107 94 100 187 203 165 161 142 102 83 74 69 65
77 38 131 116 104 67 85 104 87 92 86 118 97 116 88 94 134 130 107 127 156 144 110 128 158 179 177 149 138 124 126 119 127 147 181 193 159 142 113 90 79 68 68
152 195 138 130 80 92 70 132 132 99 101 106 114 121 137 116 125 143 160 117 151 179 166 153 179 207 205 191 184 151 146 148 142 134 184 189 184 155 129 108 92 76 68
110 127 169 189 156 81 60 146 166 126 110 144 120 120 149 178 164 141 153 158 139 159 198 210 182 230 240 236 209 164 176 179 154 146 164 200 175 168 147 135 121 100 81
213 162 129 144 136 142 149 121 230 204 143 131 129 154 140 183 213 218 198 182 186 165 204 271 258 248 260 225 218 189 210 200 178 161 174 186 197 214 178 172 163 142 126
226 248 275 258 227 202 173 185 279 232 183 166 157 78 150 194 214 238 277 248 232 218 220 269 292 281 262 271 274 248 278 215 194 182 182 200 210 210 239 238 208 189 175
142 192 200 183 173 163 163 158 177 226 245 231 200 160 89 191 211 231 267 273 264 264 264 304 302 318 326 314 359 348 295 267 210 206 210 215 219 260 231 249 213 192 187
159 162 162 152 156 167 198 215 207 211 301 295 258 181 134 129 186 268 221 259 257 272 275 293 326 362 352 384 357 386 278 277 249 219 224 253 257 294 275 252 242 197 234
114 143 160 170 148 139 141 140 144 146 187 276 212 145 114 104 104 127 163 242 240 250 253 248 294 373 452 422 420 306 318 303 290 273 234 218 242 272 282 274 251 229 275
114 131 134 140 147 116 105 108 104 99 104 114 152 191 172 178 168 144 124 114 208 224 233 237 261 304 378 442 451 473 301 312 346 351 314 285 269 268 278 284 276 251 287
118 112 110 109 104 120 107 98 88 93 101 103 99 118 132 160 169 180 205 182 141 160 170 219 231 273 318 362 439 444 422 383 375 446 411 359 299 249 281 324 304 318 378

GFSSE_con_3kmhel_057.txt.gz
Helicity
45 33 33 29 24 33 39 37 30 27 35 39 44 51 48 42 36 37 32 18 5 19 20 28 33 41 50 68 77 81 69 54 39 23 30 38 49 60 71 48 44 52 60
90 50 39 29 30 25 34 29 28 32 42 32 43 47 33 31 23 18 8 -1 11 23 20 16 23 30 38 45 55 50 30 30 31 29 32 32 36 39 40 41 41 37 45
112 62 36 39 39 35 29 22 21 36 45 34 36 27 17 10 2 -1 -4 -7 13 42 29 26 27 24 23 35 37 34 37 39 29 15 34 4 12 30 32 32 33 34 32
113 62 18 36 61 60 41 37 18 29 39 35 38 21 6 -1 -2 6 4 14 47 53 32 28 25 20 15 17 24 30 44 56 27 -25 -18 -2 18 28 24 23 27 27 21
92 63 50 75 75 58 38 25 24 23 -3 15 19 6 9 7 22 17 21 57 69 53 34 29 22 14 10 7 4 9 29 50 30 14 36 17 16 35 59 53 23 12 18
92 94 79 84 72 55 31 21 31 35 2 7 11 3 14 28 38 48 59 66 65 39 32 32 22 11 4 0 -10 -10 13 51 14 45 40 42 15 59 81 83 72 69 65
91 90 91 81 64 31 35 45 39 44 15 10 17 12 19 33 34 39 51 58 41 32 32 30 21 14 4 -2 -12 -18 5 32 -9 22 31 37 31 57 65 64 57 61 84
111 94 77 75 55 65 67 58 53 39 43 30 14 12 21 37 37 39 41 40 32 31 31 27 20 12 5 -3 -14 -28 -10 21 9 44 26 24 52 58 53 69 69 77 89
93 86 87 93 82 75 73 69 70 43 54 47 30 18 22 44 40 35 37 36 33 32 31 28 22 15 11 3 -8 -15 -5 24 23 27 39 28 49 59 59 61 73 80 86
48 49 82 99 95 81 66 87 85 73 74 79 49 39 42 54 63 37 32 35 42 40 39 32 30 26 19 13 4 4 22 39 59 65 54 42 81 79 68 62 66 74 78
43 38 50 67 75 77 86 79 83 76 81 79 61 52 45 32 34 31 35 50 51 48 49 46 44 41 35 28 22 16 29 27 73 78 70 98 96 90 81 73 73 68 73
76 45 38 37 41 48 86 100 106 96 92 83 68 57 41 27 29 29 16 42 53 55 59 59 56 56 55 40 29 26 36 52 81 99 98 118 115 104 90 83 80 68 66
93 106 71 39 11 44 62 88 105 118 102 79 66 65 37 34 31 47 58 49 47 49 53 76 73 63 62 68 52 54 57 72 87 100 108 136 127 119 107 89 73 69 66
75 98 134 104 50 82 101 111 86 94 75 75 63 54 35 40 62 84 85 79 87 78 78 75 73 64 65 64 65 78 75 85 117 119 118 139 124 123 113 98 83 76 70
78 77 86 138 150 107 162 109 117 87 83 60 82 42 27 85 104 113 89 95 82 100 104 90 76 77 74 81 80 90 97 97 136 149 136 142 138 117 113 101 89 81 79
58 65 63 103 112 134 104 116 110 133 92 73 64 93 21 88 122 134 134 119 101 88 93 100 108 93 88 96 110 105 110 111 145 159 152 149 160 137 118 102 90 82 79
109 110 62 49 89 122 131 94 89 82 113 87 75 115 112 97 129 151 140 156 128 113 87 121 99 119 117 120 134 133 137 125 149 168 171 174 171 154 134 109 99 84 82
73 129 113 106 81 61 118 120 88 111 126 115 129 130 122 135 142 153 175 173 157 144 155 173 166 160 179 206 191 157 156 161 156 175 188 187 186 170 142 117 114 92 84
164 149 101 105 121 78 56 69 108 106 127 138 138 129 131 142 155 171 186 172 188 192 176 191 197 243 240 242 228 196 173 175 178 217 209 205 191 189 169 128 145 111 94
238 251 228 206 150 114 81 73 122 120 109 136 142 154 156 152 180 203 188 187 204 222 212 225 244 274 260 269 266 237 215 190 210 217 244 242 222 212 196 174 178 158 130
265 280 261 246 298 295 256 226 189 160 139 129 140 132 154 208 181 198 243 221 236 243 214 221 254 285 287 333 353 289 256 192 202 214 223 256 254 233 222 211 211 200 176
185 197 202 203 204 206 198 202 212 207 213 208 167 142 143 159 168 221 215 257 254 284 273 264 277 336 362 401 406 367 300 286 237 231 246 241 261 305 268 252 250 234 217
152 141 157 184 190 151 155 159 181 213 230 202 204 184 142 116 120 143 182 210 235 280 260 288 283 317 300 422 450 418 333 307 262 253 247 269 277 313 332 326 279 261 243
89 142 171 192 208 187 154 132 117 111 128 143 136 140 153 138 112 97 125 152 208 200 209 235 260 328 416 366 454 404 445 327 247 230 205 209 259 267 283 324 293 272 247
130 143 157 173 178 173 166 153 146 135 106 99 113 113 101 106 111 100 91 112 159 191 222 234 227 222 276 272 407 439 394 435 391 319 249 249 271 288 294 269 312 288 268
129 136 138 139 135 142 139 138 131 120 116 118 124 134 117 98 118 121 102 131 147 158 144 166 155 188 204 231 313 368 438 418 330 400 350 292 280 282 279 281 297 322 382

GFSSE_con_3kmhel_060.txt.gz
Helicity
6 -1 19 25 24 20 38 50 52 54 52 51 53 44 42 40 40 38 28 32 25 20 26 31 43 56 82 93 88 95 99 96 86 70 57 50 60 55 55 59 69 45 46
35 10 23 24 18 5 20 31 40 44 33 39 54 54 36 32 27 17 17 16 25 20 16 18 25 44 60 73 85 90 82 75 61 48 41 39 37 40 42 41 39 33 37
61 29 14 24 15 18 13 20 30 55 51 46 46 28 16 14 8 4 5 12 40 27 24 24 19 23 44 53 62 69 59 45 41 47 28 10 16 35 33 31 29 26 24
81 49 26 33 26 28 23 22 40 30 21 39 41 13 6 -3 6 11 7 41 55 38 31 26 15 7 10 34 58 63 51 21 -2 4 12 12 9 16 23 22 16 16 11
92 55 26 45 46 37 35 34 52 32 -11 2 9 5 -6 16 16 20 26 67 57 40 33 25 11 5 5 15 36 45 25 4 16 18 14 12 7 37 31 17 3 11 22
107 52 30 69 54 42 37 48 49 32 -7 -23 -7 4 23 24 21 39 58 72 52 31 32 22 9 1 -6 -8 14 19 23 46 30 15 6 28 19 64 65 68 61 55 59
106 81 66 77 55 43 38 41 42 35 5 -5 -34 12 31 27 46 53 61 56 39 32 33 22 10 2 -7 -16 6 15 23 32 17 40 31 33 44 61 54 49 53 66 74
77 78 71 55 45 25 33 47 52 35 22 13 5 -13 29 29 41 45 50 38 34 36 35 26 12 -1 -10 -17 -3 22 15 36 29 34 33 38 70 60 67 62 67 66 74
75 84 71 52 35 56 64 65 70 54 48 33 17 23 24 14 18 25 31 30 34 41 42 33 20 3 -7 -10 -3 30 17 30 47 31 40 36 59 69 61 66 63 71 82
78 72 68 71 76 63 63 76 73 76 58 62 35 37 57 40 24 15 17 12 20 30 35 35 31 22 11 3 8 24 65 66 54 50 50 39 74 81 70 74 70 76 80
62 42 60 78 76 82 80 78 84 85 84 69 60 54 57 43 36 33 31 19 25 28 30 33 35 35 26 17 18 35 87 79 68 60 70 77 78 81 76 78 73 73 76
42 7 26 38 52 79 93 100 89 86 85 85 74 57 52 46 33 32 34 45 39 31 26 31 34 37 38 25 21 31 67 71 85 88 94 109 99 89 78 81 71 70 74
25 14 7 21 48 62 77 100 89 94 89 82 79 67 58 53 40 39 39 38 45 52 51 49 52 52 48 49 47 45 59 68 93 91 93 115 111 111 101 84 67 65 69
90 51 18 11 34 38 76 89 91 104 106 90 72 63 80 71 52 36 36 49 61 69 67 75 78 72 69 63 66 70 58 83 98 94 88 117 116 112 112 100 79 67 65
92 88 72 49 43 50 69 86 92 84 94 77 68 61 74 65 64 65 46 61 71 86 90 90 82 84 85 78 83 83 73 95 103 123 131 110 112 116 111 107 86 74 70
78 80 93 81 97 128 109 81 96 95 83 103 66 43 69 82 80 98 79 64 76 96 98 105 98 91 86 101 86 111 92 105 123 134 150 140 129 129 113 103 101 84 70
46 67 82 115 144 169 134 107 109 101 104 112 106 64 55 106 114 129 133 114 104 118 122 116 90 111 104 105 105 121 121 122 149 147 163 176 163 142 131 110 104 86 77
82 73 74 101 133 160 160 155 140 123 116 99 109 118 88 91 146 150 172 172 160 160 156 160 127 123 124 137 134 125 136 153 146 160 179 186 189 185 144 109 106 98 83
77 77 87 102 112 120 124 135 125 114 146 121 116 125 119 128 142 175 184 186 206 193 196 196 177 196 174 177 181 165 168 183 172 182 182 192 194 207 207 135 123 126 103
216 226 193 154 112 114 129 135 124 123 93 105 145 147 129 151 158 186 197 193 228 229 213 237 221 241 228 228 238 211 203 194 195 202 218 217 221 227 223 194 170 166 145
248 233 264 251 260 192 158 136 134 118 90 106 105 115 138 165 181 167 157 149 189 220 203 230 253 234 219 283 340 273 251 231 213 214 245 256 257 259 251 237 213 220 192
235 246 236 222 225 219 227 225 214 182 148 119 111 115 130 137 156 179 159 155 179 219 222 216 275 275 256 310 344 376 312 283 263 259 293 302 284 305 288 265 244 231 224
189 190 192 194 181 156 180 198 220 221 222 218 209 172 145 142 141 154 175 175 161 192 214 205 233 279 235 301 347 321 301 278 254 207 215 279 304 338 315 322 313 275 235
144 151 169 185 213 218 201 182 172 167 169 157 151 154 153 158 151 145 136 151 157 178 183 192 208 230 238 215 310 297 360 336 293 244 226 179 208 249 272 320 306 290 261
126 129 159 189 199 205 195 172 154 154 134 134 132 129 135 154 171 146 130 120 141 167 175 181 187 199 225 193 254 281 267 377 371 362 222 258 252 213 242 266 272 297 290
143 167 180 184 181 170 164 167 155 145 144 147 150 147 139 129 179 231 202 155 126 133 151 158 157 169 187 188 174 200 247 305 308 364 352 315 314 224 218 235 304 284 299

GFSSE_con_3kmhel_063.txt.gz
Helicity
-54 -39 9 18 19 15 27 34 53 62 65 66 62 57 50 50 48 36 35 21 8 11 15 32 53 95 121 129 113 108 95 78 74 64 60 56 56 51 58 69 62 37 34
-4 2 14 17 12 -2 5 23 41 46 44 55 54 42 39 39 33 23 15 19 8 6 5 14 39 67 91 110 102 99 84 73 65 59 46 38 33 37 39 46 43 29 29
23 22 4 17 8 2 -5 6 20 30 44 60 64 38 28 21 16 12 8 30 19 19 15 11 24 50 59 71 80 72 56 45 46 38 34 18 19 35 33 29 23 20 16
44 34 9 18 18 27 14 14 34 22 22 44 37 19 12 6 5 7 19 45 32 22 17 9 8 20 43 57 54 32 21 15 8 20 14 11 -1 17 13 5 7 6 2
72 53 23 30 44 32 42 44 44 9 -39 -21 -0 1 -0 9 12 17 47 58 37 20 15 6 -1 2 28 35 29 7 -13 2 18 11 4 4 -10 7 12 -1 -0 13 19
99 66 54 51 48 45 55 41 30 -0 -22 -40 -41 -44 10 12 24 31 71 56 35 23 14 2 -5 -3 13 11 9 1 10 24 21 16 10 14 33 55 61 51 44 47 59
101 47 27 59 55 52 54 43 23 10 -1 -7 -61 -41 15 9 29 50 46 37 26 20 12 5 -4 -13 -4 -7 -3 8 26 27 7 5 18 26 36 37 41 35 42 56 66
96 84 62 70 61 47 46 42 29 21 17 11 11 -36 10 -2 23 28 25 15 13 16 14 7 -2 -13 -12 -6 -4 11 26 38 18 18 20 29 61 46 50 49 52 49 54
100 86 78 71 44 34 40 40 42 37 24 18 19 32 43 13 11 17 9 3 4 10 8 1 -2 -8 -14 -2 2 10 23 43 44 32 36 37 47 54 43 44 43 51 63
74 77 71 61 36 37 39 46 65 55 40 37 23 31 37 43 46 33 21 4 5 6 6 2 1 -4 -14 -10 15 23 24 58 55 45 45 37 51 67 62 59 51 46 51
86 70 64 62 55 74 55 54 76 62 56 53 45 50 53 34 34 35 29 32 38 35 31 19 12 5 -2 -6 8 53 57 60 59 58 58 48 73 79 79 74 58 52 51
20 19 34 49 65 84 79 90 94 74 75 74 63 57 58 50 46 40 25 21 34 42 46 42 37 28 21 21 24 66 72 60 58 67 65 62 78 77 81 92 74 65 59
14 19 -6 6 41 79 88 91 84 79 82 79 69 64 60 61 51 47 44 34 38 42 55 50 54 56 52 49 51 67 79 67 67 78 75 70 81 83 89 95 80 65 64
44 13 -4 -3 17 42 72 88 81 86 82 77 72 74 78 64 55 50 48 40 40 58 66 67 71 64 57 56 66 73 89 92 94 97 89 75 78 78 82 86 81 69 62
66 25 14 25 16 26 48 71 78 87 87 78 77 76 82 70 61 63 45 44 39 60 72 76 81 76 72 67 70 76 81 96 100 112 110 88 85 82 79 83 82 74 72
68 53 42 49 46 61 59 67 70 89 91 79 70 69 75 76 67 71 61 62 59 66 72 85 93 92 84 87 70 75 64 93 103 101 114 102 90 93 84 75 74 74 69
102 86 77 78 95 103 89 85 95 82 95 85 63 85 89 90 86 91 88 89 79 93 85 91 87 92 83 90 87 75 81 76 105 109 127 130 123 108 109 77 68 66 63
53 66 103 122 132 125 129 129 129 102 116 111 102 94 102 112 115 117 123 117 113 134 137 131 125 125 122 125 128 113 117 111 112 125 149 160 162 165 131 105 85 65 62
18 34 61 94 116 138 146 146 140 129 138 124 131 125 101 108 134 147 163 154 169 167 176 183 172 182 170 159 159 140 147 154 153 148 160 178 187 197 198 153 121 112 91
123 111 92 95 110 106 140 150 152 154 132 129 121 122 115 124 146 169 156 166 193 191 184 215 200 216 208 192 190 168 175 175 194 182 187 203 215 226 245 232 201 175 133
232 208 198 180 177 136 145 140 139 129 127 128 116 108 119 124 120 151 163 178 199 198 182 201 227 211 198 236 242 195 185 181 184 209 237 225 221 251 260 262 249 233 198
206 213 217 218 214 197 190 183 181 163 147 129 125 114 124 130 132 155 156 155 165 193 183 196 255 257 233 234 246 243 170 153 197 218 265 265 244 293 289 269 274 254 226
169 164 174 194 199 189 185 170 178 186 195 187 171 148 149 145 136 138 150 163 162 181 179 176 218 235 202 230 254 242 218 192 196 180 160 191 207 263 277 267 253 250 255
172 165 150 149 158 173 182 185 187 170 157 165 176 166 166 176 169 167 147 152 163 180 180 178 194 206 225 181 227 195 248 272 218 150 181 179 181 171 191 222 225 213 240
160 174 179 167 176 171 165 152 145 153 150 151 155 167 171 182 205 205 194 156 131 142 142 141 150 150 174 181 210 204 174 189 223 230 141 180 180 145 137 120 135 153 182
180 168 168 164 180 193 186 175 150 142 144 145 146 142 141 138 159 177 184 185 173 149 132 139 137 139 143 146 155 168 181 184 187 176 190 172 183 150 155 184 185 201 209

GFSSE_con_3kmhel_066.txt.gz
Helicity
-94 -79 -15 1 8 18 32 34 41 48 55 56 57 55 51 45 32 24 15 5 4 11 29 46 55 78 104 123 112 102 84 60 53 56 51 42 34 46 56 45 48 21 16
-38 -53 -6 -4 -2 1 0 6 19 26 33 34 36 33 32 27 20 3 9 0 -2 -3 1 27 61 91 108 116 102 75 56 46 48 43 30 21 26 34 32 32 24 14 11
15 -8 -15 10 -2 1 -8 -16 -13 10 18 47 30 31 25 9 6 2 11 7 0 -3 0 18 31 28 39 46 42 34 33 38 37 27 20 7 9 21 13 9 5 4 5
36 12 -10 17 3 1 -2 -11 -22 -12 0 30 23 18 10 2 0 -5 18 14 7 1 -2 3 8 8 21 20 13 12 10 7 9 7 -10 -14 -32 1 -6 -5 -6 -9 2
54 43 17 12 38 17 26 33 15 -14 -37 -43 -16 2 -2 -4 1 1 29 16 7 -1 -6 -9 -12 -7 -3 -13 -23 -29 -20 -6 0 -15 -18 -24 -29 -10 -4 -3 10 4 14
64 50 43 49 52 53 45 28 12 -3 -34 -55 -46 -22 -6 -3 2 4 27 12 -4 -9 -11 -8 -10 -7 -13 -28 -39 -32 -4 -2 3 -9 -17 -8 2 26 37 24 19 42 62
71 51 66 67 71 71 46 27 9 -6 -15 -15 -54 -20 -2 -8 1 46 20 2 -8 -10 -10 -5 -5 -8 -12 -17 -24 -19 -3 8 0 -4 -1 6 20 40 24 20 18 20 41
81 59 46 66 77 72 52 35 17 0 0 2 -7 -16 -12 -1 21 19 1 -9 -13 -11 -13 -13 -9 -6 -10 -14 -11 -4 7 12 0 -3 -2 2 23 32 33 36 36 28 28
96 60 44 73 71 64 53 40 28 13 6 5 10 9 15 14 4 19 5 -3 -10 -10 -14 -19 -15 -11 -14 -13 -5 -1 3 20 20 8 5 3 9 29 30 28 30 35 42
93 83 75 85 69 54 41 35 33 30 23 17 33 34 25 18 32 44 24 20 26 21 14 1 -6 -9 -4 -4 3 9 11 44 38 29 27 15 14 42 41 31 30 29 31
79 75 91 84 62 39 44 31 36 40 42 37 39 49 46 34 35 26 17 9 10 18 19 18 17 18 29 45 50 50 52 46 46 45 49 34 34 54 55 51 37 30 29
36 42 69 77 69 68 85 72 61 56 56 56 52 53 53 45 43 40 33 27 25 26 26 23 24 31 44 47 62 60 70 65 55 54 58 45 40 52 66 69 56 49 42
13 44 44 52 56 65 90 82 74 67 69 61 59 59 56 56 48 45 41 36 39 38 41 36 37 46 46 55 63 64 62 68 62 58 59 50 44 44 62 71 66 49 46
36 22 31 20 26 38 65 71 76 69 64 64 59 64 66 58 51 45 43 41 42 47 46 49 53 48 48 56 65 73 70 70 65 59 60 49 47 38 47 59 62 45 42
54 33 18 19 18 34 52 58 60 62 65 68 69 63 68 59 55 53 44 47 49 53 57 55 60 60 55 58 61 66 67 65 67 71 77 53 53 54 45 51 54 54 45
47 36 32 21 26 47 52 53 55 62 58 68 76 70 70 66 61 58 51 53 53 65 70 71 70 70 67 68 55 58 58 72 73 80 84 78 61 68 61 51 55 57 48
52 44 49 46 49 61 65 66 73 74 80 81 81 79 79 80 69 68 67 65 69 80 77 78 74 81 81 83 77 63 71 67 84 84 94 97 91 81 84 67 63 60 52
69 48 52 68 77 91 90 93 107 105 114 104 96 102 95 95 94 95 94 87 88 99 110 114 112 107 111 122 124 108 107 97 94 106 123 125 127 126 113 93 86 78 73
66 70 69 81 89 94 94 113 119 118 124 114 111 111 105 110 117 129 128 120 125 123 128 138 135 160 149 149 154 143 141 136 129 124 128 149 154 157 160 134 120 107 100
86 75 72 76 78 79 95 105 105 107 105 107 103 100 101 113 115 134 140 132 149 149 140 162 160 181 185 168 162 147 150 152 147 153 139 166 175 183 188 185 171 147 117
142 131 134 113 134 133 137 130 123 119 118 115 114 108 103 98 100 120 125 127 159 165 151 180 196 176 181 212 219 176 160 146 150 157 171 183 178 203 221 224 222 213 175
171 191 197 185 175 167 150 142 138 131 130 121 118 113 109 113 117 127 123 131 150 167 157 170 205 201 198 221 224 211 141 118 107 97 111 140 147 182 176 188 205 200 187
187 194 204 205 188 180 168 158 161 155 156 164 164 160 181 185 165 149 139 138 145 173 167 172 183 178 171 177 191 187 170 158 142 126 118 110 109 118 136 148 171 186 174
168 191 198 202 200 188 173 159 149 136 135 148 155 159 169 190 189 193 186 165 145 157 162 157 164 168 188 150 179 150 172 219 164 147 175 142 134 131 134 121 127 132 146
177 178 181 186 189 178 174 161 146 146 150 155 165 180 190 179 194 197 190 189 178 151 129 131 151 160 174 183 193 182 156 172 178 164 144 139 150 123 122 131 127 133 144
214 189 162 153 159 165 159 165 154 147 144 142 151 153 155 152 167 180 170 158 146 145 149 142 145 161 173 175 167 166 169 166 159 169 169 147 143 122 133 130 125 115 115

GFSSE_con_3kmhel_069.txt.gz
Helicity
-121 -81 -44 -8 15 24 36 40 45 42 38 38 39 31 21 11 -1 -6 -10 -13 -2 34 43 54 63 79 98 107 92 61 45 35 26 30 28 19 32 39 31 29 17 13 1
-60 -72 -32 -25 -6 -1 10 16 18 14 14 8 11 6 -3 -16 -12 -9 -7 -12 -20 -14 10 34 58 73 82 63 41 28 18 18 20 15 8 7 7 12 12 9 2 3 0
-4 -53 -40 -23 -14 -21 -22 -30 -21 -11 0 -5 -10 -11 -20 -22 -15 -5 -5 -10 -17 -14 -5 2 7 14 16 11 5 6 8 6 0 -7 -17 -16 -12 -6 -5 -7 -7 3 -3
-1 -30 -35 -16 -7 -11 -25 -37 -66 -35 -13 -21 -18 -20 -22 -22 -17 -2 -10 -19 -20 -15 -10 -9 -11 -2 -6 -11 -13 -11 -13 -16 -20 -31 -31 -21 -17 -10 -16 -13 -12 -8 -16
20 -18 -18 5 14 1 -3 -11 -19 -29 -32 -31 -26 -19 -24 -19 -21 13 -10 -15 -20 -17 -16 -22 -24 -21 -25 -35 -38 -28 -22 -14 -30 -33 -22 -16 -22 -12 -1 3 13 31 11
41 5 9 9 26 33 33 11 -14 -33 -39 -56 -45 -28 -23 -21 -20 17 -4 -11 -11 -14 -18 -24 -28 -32 -38 -41 -38 -18 -14 -13 -23 -17 -10 -9 -14 -5 2 5 21 41 30
55 37 15 47 50 51 43 18 -7 -16 -29 -41 -57 -28 -26 -26 -23 8 -11 -16 -12 -14 -15 -18 -25 -26 -35 -28 -26 -14 -2 -1 -8 -8 -10 -9 -7 2 2 9 10 19 17
68 56 42 61 63 58 45 29 11 -5 -18 -20 -36 -16 -27 -17 16 -4 -22 -19 -18 -18 -18 -21 -19 -20 -24 -24 -18 -8 1 1 -2 -1 -2 -2 8 10 16 15 17 15 7
73 71 68 48 54 70 49 37 26 9 -4 3 -4 13 12 18 7 0 -10 -3 2 0 -1 -1 -1 0 -6 -7 -9 -10 -1 10 10 12 9 8 1 22 22 16 14 16 18
92 85 70 53 51 58 48 37 34 29 19 33 42 32 32 14 18 31 2 1 8 13 7 7 8 12 16 19 26 30 31 46 34 27 26 25 3 32 39 28 23 20 21
105 105 97 74 63 54 44 35 39 43 38 44 51 55 47 36 35 24 15 9 12 18 18 19 24 31 37 33 32 35 39 36 40 35 32 28 14 34 43 41 32 29 29
84 94 104 96 84 62 48 47 52 48 45 46 44 45 44 43 37 33 26 18 16 23 28 30 34 44 45 37 36 40 45 50 48 43 42 31 22 25 49 54 40 34 34
52 65 65 76 84 74 59 68 69 60 58 55 52 48 47 47 44 41 35 28 28 28 34 35 42 46 45 45 47 44 47 50 55 52 43 32 28 21 39 57 55 39 34
33 48 58 56 64 64 74 66 67 65 59 53 46 45 48 47 45 42 37 32 33 36 38 42 44 44 47 49 49 46 50 53 57 59 51 34 30 28 27 46 60 50 33
22 26 29 36 30 40 49 53 49 48 51 45 46 43 46 46 44 44 38 37 38 40 44 48 51 49 47 48 49 52 54 55 55 62 61 48 38 41 38 38 51 53 43
32 30 28 22 25 35 45 54 51 44 40 42 45 47 49 49 45 45 39 40 42 47 51 52 55 57 55 55 51 57 57 60 63 64 68 60 51 48 45 40 41 44 50
38 36 31 27 27 29 34 42 47 44 47 51 57 53 51 55 53 48 48 47 47 54 53 59 60 66 71 75 67 63 74 72 74 68 72 75 69 62 56 44 40 43 48
54 43 40 37 33 34 44 54 56 56 61 62 66 68 60 59 61 63 63 60 63 71 75 78 82 87 89 93 96 90 90 86 77 76 84 87 87 86 83 67 53 42 51
41 47 43 45 41 44 55 65 69 70 71 70 77 74 61 63 65 74 75 70 77 85 90 98 98 105 103 109 109 87 85 94 88 95 80 87 91 104 101 93 85 74 65
62 49 47 53 51 57 68 73 70 67 60 59 60 63 64 71 68 78 76 70 82 92 98 113 108 108 110 101 107 101 108 101 100 111 96 97 101 96 97 98 98 92 85
84 78 63 62 76 87 102 101 90 89 83 77 78 66 70 78 77 80 82 77 91 99 82 85 104 113 126 133 146 123 130 108 118 112 95 90 88 103 95 101 113 107 104
83 88 99 107 112 107 122 127 125 113 110 112 108 103 105 95 96 100 98 96 97 108 96 102 116 143 152 158 170 180 129 94 105 86 66 80 74 83 82 82 86 92 99
93 108 128 144 154 160 146 149 151 145 135 134 146 151 167 173 175 162 144 129 118 127 126 114 129 150 165 168 145 163 168 141 151 119 89 85 83 75 70 72 65 77 92
124 165 183 205 209 200 172 154 141 134 131 145 154 162 169 186 191 193 184 172 150 146 142 136 144 158 176 168 182 147 142 200 163 154 152 121 101 85 82 72 74 68 77
154 166 183 196 202 192 174 153 135 133 141 149 161 177 204 212 225 219 205 192 186 163 139 126 128 148 176 189 199 197 172 177 163 170 155 137 154 118 91 94 102 98 105
185 191 195 189 192 186 177 178 165 158 157 159 174 178 180 170 174 191 179 170 160 151 143 129 122 121 154 182 194 195 202 194 171 158 150 119 112 111 105 80 115 119 108

GFSSE_con_3kmhel_072.txt.gz
Helicity
-75 -42 -50 -8 6 15 28 31 26 26 20 11 8 0 -14 -6 -14 -17 -17 -8 18 37 48 60 68 74 79 69 46 26 18 17 14 10 12 19 17 12 11 -3 -22 14 18
-53 -54 -59 -26 -19 -8 12 21 19 10 1 -10 -12 -21 -25 -12 -18 -20 -25 -26 -13 14 37 48 55 60 50 25 14 9 11 8 2 -8 -16 -2 -9 -6 -5 -5 -14 2 1
-29 -57 -61 -46 -36 -35 -20 -11 -14 -15 -19 -23 -28 -34 -34 -19 -17 -14 -16 -18 -15 -4 4 8 14 12 3 -4 -6 -5 -7 -11 -17 -24 -46 -12 -4 -11 -8 -5 4 -12 -7
-14 -36 -42 -35 -39 -29 -35 -46 -39 -26 -23 -36 -44 -49 -45 -32 -13 -15 -18 -17 -15 -14 -17 -15 -10 -16 -23 -26 -27 -25 -23 -25 -30 -28 -27 -17 -10 -6 1 0 -7 7 1
-7 -27 -18 -25 -17 -26 -41 -63 -40 -35 -38 -47 -47 -52 -44 -38 -4 -9 -20 -23 -23 -26 -32 -30 -29 -32 -36 -34 -26 -26 -22 -26 -32 -25 -9 -7 -3 -5 -6 5 16 18 -3
3 -15 7 5 9 -1 -21 -27 -35 -37 -67 -66 -46 -44 -44 -35 2 -4 -18 -20 -25 -26 -24 -22 -25 -31 -30 -26 -14 -14 -15 -24 -36 -15 -13 -11 -7 -8 -2 5 10 17 18
17 14 4 27 35 28 8 -8 -36 -56 -49 -47 -61 -44 -34 -27 5 -5 -20 -22 -22 -23 -22 -19 -26 -28 -28 -23 -18 -12 -9 -31 -22 -12 -10 -16 -6 -5 1 3 8 10 15
53 28 35 48 51 46 29 5 -13 -31 -38 -45 -35 -40 -30 -11 11 0 -17 -20 -20 -15 -14 -11 -12 -15 -15 -11 -3 -2 -5 -29 -5 -2 -2 3 7 10 7 5 7 9 12
55 47 60 42 45 56 43 22 6 -3 -14 -11 1 -14 -19 18 2 -1 -13 -10 -9 -12 -11 -7 -5 -9 -7 -1 5 8 10 -10 -8 10 8 16 19 19 19 16 11 9 12
65 60 64 57 41 35 42 41 32 24 26 39 43 44 33 27 17 29 3 2 6 7 9 6 10 12 16 19 20 23 22 21 18 20 23 40 22 34 36 27 21 17 17
76 72 77 66 59 52 52 57 53 48 47 60 53 56 21 17 14 17 34 19 16 15 20 23 24 29 31 38 39 36 22 25 30 30 31 68 27 35 47 42 35 27 24
103 99 94 82 71 72 70 50 60 63 45 41 34 32 26 30 29 22 36 30 23 22 30 33 36 42 23 29 40 43 30 37 38 40 38 58 30 21 46 57 45 36 34
103 123 110 100 92 75 73 70 77 75 70 67 60 50 40 39 40 31 31 30 28 40 33 38 42 34 41 40 41 40 42 41 41 49 59 61 37 25 27 53 58 45 37
63 70 77 85 87 78 84 79 82 79 73 74 62 53 49 45 43 40 39 40 37 40 43 45 47 45 47 45 45 45 50 50 49 55 59 68 47 35 25 35 56 60 47
60 58 51 63 63 69 68 72 70 68 67 65 52 46 47 49 45 44 43 43 44 49 48 49 48 50 52 49 48 49 51 50 51 60 61 95 62 47 37 36 39 52 55
48 40 47 56 49 55 55 53 59 58 54 52 54 51 49 48 49 51 50 49 50 51 54 54 59 62 63 61 58 57 59 61 60 63 67 65 92 58 48 43 39 32 35
54 27 34 43 35 32 33 44 52 56 51 55 57 51 49 50 49 51 55 60 62 58 56 63 64 68 72 70 62 69 76 72 70 70 69 74 83 90 68 53 43 39 39
57 40 33 40 36 33 38 47 55 57 55 61 64 64 57 53 54 57 63 67 68 69 68 70 75 76 75 80 82 85 92 87 78 74 82 86 89 87 96 80 61 55 49
51 43 47 34 31 31 37 44 50 54 59 65 65 60 57 60 61 60 64 67 70 75 74 77 79 81 89 92 86 88 91 96 85 95 94 90 83 86 87 99 106 88 75
77 61 56 45 44 37 47 55 63 66 67 69 72 75 74 78 77 79 76 68 73 80 82 84 82 91 92 101 102 103 96 99 100 99 95 95 94 96 88 83 88 85 100
83 81 62 51 47 50 56 62 63 63 66 74 76 75 83 87 89 91 93 88 90 88 82 92 103 107 114 107 136 121 110 93 106 99 94 101 104 94 89 86 87 87 95
107 90 89 66 58 61 68 76 89 91 90 96 106 104 113 102 100 106 106 105 106 112 103 109 122 127 127 129 162 193 142 117 96 85 83 84 80 90 95 81 64 79 88
102 99 94 98 91 96 96 109 113 110 103 105 106 119 137 142 146 152 147 151 141 144 138 136 152 162 174 160 136 171 170 131 168 129 104 91 87 101 102 84 79 86 100
123 122 108 103 112 135 137 127 116 114 108 131 135 135 136 153 158 164 163 158 145 137 123 123 140 143 168 164 184 153 139 199 168 155 163 128 115 86 82 84 82 95 105
129 121 125 128 151 163 157 154 142 132 134 127 127 127 146 156 175 184 183 169 160 150 136 116 113 116 139 159 182 194 158 170 170 187 180 147 160 116 82 83 99 96 109
156 134 135 140 151 150 149 145 132 122 115 110 121 133 151 160 172 188 178 166 152 144 130 123 124 111 128 136 154 188 207 211 194 203 187 149 125 107 125 110 104 116 117

GFSSE_con_3kmhel_075.txt.gz
Helicity
-7 12 -9 -14 -1 5 8 14 14 4 2 0 -8 -18 -4 -19 -13 -1 11 20 38 54 54 56 63 64 58 32 13 12 17 18 12 8 13 3 0 6 -5 -10 -3 9 9
-3 -11 -34 -34 -14 -1 -1 7 5 -5 -9 -15 -23 -21 -11 -12 -14 -15 -12 6 17 40 49 46 55 44 19 8 8 9 9 2 -20 -24 -6 0 -5 -2 3 -5 -13 -2 -2
2 -21 -56 -56 -40 -25 -8 3 -2 -15 -22 -28 -33 -29 -12 -14 -11 -9 -14 -7 5 17 25 24 17 5 -3 -5 -3 -5 -7 -19 -39 -53 -25 9 2 2 5 -5 -1 -1 5
6 -40 -59 -64 -51 -26 -22 -19 -18 -27 -30 -35 -39 -39 -27 -16 -15 -15 -15 -9 -5 -3 -3 -4 -11 -16 -24 -21 -16 -14 -15 -26 -16 3 -19 -8 4 -3 3 10 15 -1 5
14 -32 -12 -42 -30 -36 -48 -51 -47 -38 -38 -48 -47 -41 -44 -7 -8 -17 -16 -16 -17 -19 -24 -23 -26 -23 -25 -16 -16 -13 -26 -23 -42 -24 -6 -21 -1 -4 4 16 17 20 28
15 13 14 -13 -14 -33 -60 -53 -53 -74 -65 -61 -47 -41 -46 -6 -1 -8 -10 -8 -12 -17 -22 -26 -28 -22 -14 -16 -18 -22 -38 -59 -61 -23 -15 6 1 2 7 10 9 15 25
28 36 2 12 0 -11 -18 -24 -41 -69 -92 -82 -57 -48 -42 13 -3 -5 -11 -11 -13 -13 -14 -17 -18 -20 -14 -15 -13 -19 -37 -45 -19 -11 -2 8 10 12 14 13 15 16 15
66 25 20 28 13 4 -2 -12 -27 -39 -47 -61 -58 -54 -47 1 -16 -15 -19 -21 -23 -23 -23 -24 -23 -23 -19 -13 -11 -13 -26 -46 -10 8 7 31 15 17 17 15 16 17 18
65 39 37 18 17 22 17 7 -2 1 -20 -46 -29 -30 -21 -12 -18 2 -8 -5 -6 -7 -9 -10 -9 -6 -5 5 5 4 -4 -21 -7 27 17 54 31 32 31 28 22 22 23
52 86 41 36 19 13 25 29 25 30 37 40 14 21 32 19 18 16 5 5 7 11 10 7 9 16 16 23 26 26 20 10 21 40 42 67 44 45 46 43 39 36 31
104 82 73 48 48 40 38 53 48 48 61 54 59 44 22 19 12 14 54 39 22 20 20 24 30 33 31 38 43 35 20 28 43 51 58 90 59 43 49 49 51 49 44
107 82 96 76 95 52 57 54 52 60 34 24 28 34 12 48 70 77 72 56 41 35 30 29 33 33 22 33 58 50 33 48 50 61 89 97 71 44 48 63 58 58 54
96 82 100 85 103 107 91 62 69 62 55 58 54 48 53 61 62 45 53 46 39 42 36 46 51 31 41 47 48 39 50 51 56 70 103 108 79 56 42 55 70 65 62
86 144 103 93 93 104 101 71 82 83 79 75 69 64 69 66 70 61 59 60 53 45 41 45 41 49 52 47 45 51 55 58 56 71 85 113 88 64 50 42 57 70 66
67 70 85 90 92 108 104 100 101 88 83 77 76 68 69 75 72 68 66 60 60 60 56 55 54 52 55 55 56 54 52 54 56 71 72 120 104 76 58 49 43 48 64
53 43 46 66 66 101 101 105 82 81 74 79 71 61 61 69 69 71 68 64 63 62 60 60 61 65 67 65 63 60 62 64 66 73 82 89 108 92 72 60 52 47 49
103 78 55 54 77 89 72 90 80 86 76 65 61 62 57 62 61 65 65 73 72 70 66 66 65 69 71 69 65 71 75 69 74 78 91 98 112 112 100 71 56 56 59
86 64 65 77 69 62 80 81 70 67 57 55 56 60 57 55 62 68 73 76 77 82 79 74 73 73 73 75 79 83 91 91 84 85 105 106 136 126 124 99 86 72 68
81 74 70 61 43 45 54 56 50 59 53 53 55 58 55 56 66 77 84 86 85 92 89 87 86 82 87 95 99 100 119 109 103 105 104 107 125 146 136 124 117 97 94
108 75 70 62 45 38 46 52 58 51 49 52 60 66 71 76 84 91 91 91 92 103 98 96 93 95 98 103 111 126 122 109 121 140 126 125 129 118 163 115 109 85 82
105 88 68 51 53 60 64 64 58 57 57 66 76 89 93 97 97 97 97 94 103 106 105 103 104 119 122 114 127 133 104 111 131 129 93 91 99 126 115 103 100 103 106
122 104 85 77 75 75 77 80 71 78 68 87 101 101 112 107 108 117 115 128 143 151 126 114 136 147 157 154 177 174 140 110 103 185 138 115 92 124 142 108 99 97 92
113 128 134 116 108 93 91 109 119 125 128 112 110 119 134 134 145 159 159 157 158 166 153 157 159 160 168 171 153 188 186 171 175 178 128 113 128 140 119 113 92 107 116
115 147 141 129 111 112 105 111 94 99 101 158 181 168 123 137 143 146 145 144 144 145 147 147 154 166 164 160 159 166 147 182 175 190 194 169 185 106 109 61 96 103 114
112 110 126 130 140 128 113 120 129 140 169 154 128 109 115 113 142 153 165 162 162 166 161 153 137 125 137 149 137 136 140 164 186 211 215 190 161 149 141 114 133 139 124
148 115 139 122 127 131 136 145 152 155 138 119 107 100 101 114 118 143 158 157 151 146 139 131 122 128 127 120 134 137 150 198 191 229 205 163 173 152 145 138 155 130 125

GFSSE_con_3kmhel_078.txt.gz
Helicity
60 63 33 18 11 7 -2 1 10 1 -3 -3 -6 -4 0 5 16 20 26 42 50 60 52 64 68 59 31 20 20 13 2 1 2 14 10 0 2 0 -2 11 9 -2 6
74 37 17 4 6 -1 0 15 5 0 -7 -12 -5 -4 -4 -3 0 15 26 37 53 57 54 53 41 19 15 10 7 -5 -18 -19 -13 -15 -11 -9 5 5 4 1 2 3 7
48 15 -22 -11 -7 -3 17 12 -1 -6 -3 -18 -19 -7 -5 -2 -3 5 15 33 42 41 28 14 11 3 0 -7 -9 -19 -23 -20 -8 12 14 -55 -9 14 27 14 7 11 8
36 -24 -45 -38 -24 -1 3 -1 -11 -14 -18 -28 -32 -14 -13 -7 -7 -3 -1 3 6 2 0 -4 -5 -13 -15 -15 -15 -20 -22 -21 -28 -29 -3 -2 -2 13 23 21 22 34 31
17 -50 -45 -45 -30 -35 -32 -26 -25 -23 -26 -34 -42 -36 -13 -13 -15 -12 -14 -17 -15 -16 -14 -8 -7 -8 -12 -14 -25 -29 -41 -57 -52 -37 -8 -7 -11 2 15 17 15 29 45
2 49 -8 -32 -41 -58 -51 -59 -57 -46 -37 -32 -40 -43 -4 -1 -7 -7 -7 -12 -10 -9 -7 -4 -2 -6 -12 -15 -26 -33 -37 -43 -49 -3 -13 5 -5 10 14 16 19 26 34
108 59 12 -12 -34 -46 -51 -55 -79 -86 -71 -45 -34 -38 -3 7 -10 -10 -10 -10 -7 -6 -11 -10 -9 -14 -15 -12 -18 -34 -41 -32 -20 7 22 12 7 19 20 23 23 26 35
102 53 30 8 -12 -19 -30 -41 -62 -74 -76 -75 -55 -36 14 -8 -20 -16 -19 -15 -14 -13 -13 -14 -12 -13 -5 0 -1 -12 -21 -15 9 32 67 33 36 36 35 35 33 33 37
70 52 63 38 8 2 -14 -24 -28 -35 -42 -50 -52 -39 -7 -25 -16 4 -5 2 5 8 7 3 4 7 13 18 21 10 4 8 41 42 80 45 54 51 48 47 46 45 43
23 51 56 44 24 6 -1 3 8 5 -23 -23 -15 9 19 24 10 22 15 17 21 22 24 25 22 25 27 31 36 26 18 5 23 51 102 78 73 65 61 58 56 56 56
58 71 60 45 18 12 30 21 35 39 48 34 18 22 14 8 7 23 36 43 38 37 37 37 36 34 31 33 47 45 32 41 51 71 101 105 85 71 72 67 64 62 64
104 107 81 38 51 40 43 14 35 38 25 20 28 3 -25 9 33 78 64 67 54 47 44 41 41 33 26 31 46 41 49 48 54 73 99 111 92 71 58 73 69 69 69
98 119 87 101 63 52 91 1 50 23 10 13 49 26 28 93 69 69 62 58 54 40 46 42 36 29 29 38 64 51 53 57 56 65 117 114 97 76 59 54 70 65 66
94 93 88 94 103 85 80 46 55 28 38 70 70 47 88 85 70 50 73 49 43 61 46 61 67 43 41 57 52 50 55 70 57 55 96 111 97 81 64 54 57 67 69
87 100 94 91 106 93 102 55 80 86 84 91 96 81 79 70 71 62 71 76 62 57 58 62 67 59 65 54 57 68 60 59 64 73 105 120 107 93 74 60 55 52 64
123 111 90 91 98 94 98 87 151 113 79 103 103 90 82 69 67 74 74 65 69 69 54 65 66 71 66 71 59 63 66 73 70 84 107 129 125 107 89 70 61 60 58
89 123 70 87 82 106 113 95 94 102 101 111 94 73 64 55 59 67 48 65 63 65 63 68 72 77 78 73 70 68 68 71 84 91 112 131 144 128 109 90 82 78 70
87 91 76 81 88 99 99 102 85 110 127 94 72 70 57 57 57 63 60 61 68 86 95 87 83 83 84 86 87 78 84 101 107 103 102 113 136 175 138 109 98 87 73
76 71 85 95 83 100 104 101 86 108 92 67 60 61 66 59 74 75 72 77 82 100 105 104 93 101 104 94 101 108 108 130 118 115 128 129 132 142 160 155 107 76 68
118 101 104 101 88 92 102 91 94 100 92 69 60 48 62 70 80 96 93 89 95 109 109 111 108 104 119 113 117 124 115 119 131 122 121 131 114 100 170 181 130 88 62
146 155 103 102 80 93 94 96 99 97 74 63 80 109 156 152 129 128 110 101 100 108 112 119 121 128 132 142 154 140 133 119 120 119 157 123 88 110 168 137 115 112 118
100 125 115 104 95 90 110 111 96 97 94 88 90 123 167 186 181 163 158 161 157 148 160 153 164 145 148 144 170 160 152 123 115 108 158 175 150 172 191 171 134 154 142
90 108 129 140 125 115 140 172 170 160 152 170 168 154 163 160 159 161 149 141 137 136 130 136 148 157 156 158 156 182 189 161 154 152 186 198 189 191 160 107 105 131 126
102 127 157 166 183 200 191 184 161 151 149 158 193 201 172 170 169 169 164 161 152 148 147 154 156 164 182 160 160 153 161 184 184 171 167 217 220 193 149 144 172 213 143
163 172 168 180 180 168 157 152 156 175 195 204 205 185 158 146 155 155 154 152 159 164 172 174 175 179 154 155 149 141 134 147 152 182 183 143 178 196 210 211 229 202 159
220 194 175 185 203 163 161 182 164 164 178 187 180 164 146 141 122 134 159 163 168 175 176 170 163 143 140 156 139 135 140 158 163 158 163 162 165 182 214 214 188 150 167

GFSSE_con_3kmhel_081.txt.gz
Helicity
75 45 53 38 35 21 5 16 12 10 0 15 13 27 33 28 32 43 42 48 53 53 64 62 40 20 22 23 19 12 7 4 6 9 -4 -14 -3 7 12 14 6 -1 13
78 40 41 37 19 2 14 17 5 2 9 10 16 16 22 25 28 32 43 52 57 55 44 26 16 8 9 5 -6 -13 -6 -5 -8 -12 -21 -10 -4 16 14 14 15 8 13
84 27 21 22 7 13 21 12 3 -1 0 4 2 10 10 12 22 30 40 44 42 18 10 2 0 -6 -8 -13 -19 -14 -9 -8 9 7 -23 -32 2 18 20 24 18 25 22
57 28 11 7 7 14 6 -1 -6 -8 -10 -7 -3 11 3 -1 2 6 19 15 8 -6 -8 -13 -13 -14 -14 -18 -19 -17 -28 -35 -7 53 -2 -15 0 10 11 18 31 33 31
33 15 -15 -4 -5 -6 -10 -16 -17 -24 -20 -18 -9 6 0 -5 -9 -9 -9 -8 -12 -11 -8 -4 0 -12 -20 -31 -29 -33 -46 -66 4 -9 -17 -4 0 8 15 18 26 35 31
26 3 -17 -12 -32 -35 -33 -34 -28 -31 -32 -28 -22 -5 -2 -3 -4 -11 -13 -10 -10 -13 -10 -3 -10 -16 -25 -34 -33 -36 -27 4 17 -4 3 8 5 22 25 28 31 34 37
58 22 -9 -21 -48 -58 -61 -71 -62 -50 -46 -43 -37 -3 -1 -2 -4 -10 -17 -17 -18 -20 -17 -13 -17 -14 -14 -23 -27 -19 -14 0 18 25 25 24 22 36 38 39 41 41 42
91 52 10 -11 -36 -53 -64 -84 -90 -86 -80 -69 -57 -17 -11 -16 -13 -14 -17 -18 -20 -15 -14 -8 -2 9 11 7 -2 -8 5 12 33 55 44 33 45 49 50 52 52 53 53
107 93 57 21 1 -10 -52 -68 -76 -75 -85 -86 -82 -24 -36 -37 -16 -14 -9 -1 4 7 10 14 19 26 30 30 24 16 19 24 38 49 65 41 58 57 57 60 60 60 63
100 89 71 52 24 5 -27 -28 -29 -38 -48 -49 -46 3 -9 -19 -7 -3 -9 8 17 28 32 35 41 45 42 42 41 34 25 20 28 57 81 57 73 70 65 63 64 67 62
56 58 66 57 41 26 10 -2 2 -19 -17 -9 -6 16 10 -10 2 20 13 22 28 38 45 52 52 52 50 44 43 41 29 43 45 60 76 84 77 71 71 69 64 61 64
50 13 27 32 40 25 30 16 22 28 18 7 -2 -6 -2 4 17 26 38 51 44 43 44 46 49 43 43 40 35 31 43 44 48 65 78 92 82 74 68 73 66 66 66
58 46 52 6 28 61 43 26 24 24 20 21 17 7 2 31 43 41 38 42 45 41 38 35 29 27 27 36 29 29 36 42 48 60 74 87 78 72 68 57 65 67 72
65 61 69 57 69 76 64 51 3 7 14 26 13 39 44 38 53 51 41 36 33 36 31 34 40 38 25 20 44 45 46 52 52 58 67 84 81 71 68 60 52 64 75
77 72 99 81 75 91 71 66 52 -6 6 10 28 53 64 67 51 57 38 35 32 32 46 38 32 36 38 35 41 46 43 50 51 54 76 84 94 84 71 65 58 57 62
134 97 124 115 64 104 66 90 79 33 32 60 94 94 84 73 54 43 47 47 40 46 42 50 52 47 50 58 49 54 52 57 62 74 90 103 109 104 91 74 69 70 71
151 127 108 91 77 103 88 78 116 80 111 117 101 90 89 84 59 58 57 39 39 49 48 53 50 70 67 68 64 65 68 66 78 78 93 110 125 111 118 86 62 65 65
184 99 74 86 124 125 113 66 103 145 121 129 87 83 81 62 56 56 52 46 43 54 67 73 72 70 72 77 81 74 69 76 84 107 112 113 129 129 136 119 96 59 44
106 116 139 125 112 93 96 82 71 97 115 114 80 79 69 59 59 68 58 51 59 74 81 83 80 96 94 90 88 94 96 96 104 102 97 111 121 120 129 127 95 77 54
85 106 120 102 121 113 124 110 99 111 127 94 82 66 62 71 69 85 76 69 78 86 83 93 95 100 108 106 108 108 101 96 106 101 93 104 115 107 149 156 129 116 142
143 147 124 117 102 124 143 141 141 150 122 113 120 113 124 106 99 90 81 89 112 86 89 109 115 114 115 117 112 120 132 110 109 103 110 106 120 174 167 168 138 145 160
116 132 120 123 124 118 135 119 102 111 118 87 87 140 163 187 199 168 152 135 129 117 124 131 140 129 130 132 142 143 126 120 101 72 67 97 163 187 201 167 161 150 141
80 106 108 114 95 134 118 183 192 195 174 155 152 159 157 164 180 177 171 147 142 122 112 122 130 144 141 147 138 164 159 158 139 128 163 170 181 188 162 195 230 209 189
60 86 116 148 164 167 173 231 189 180 173 165 182 189 187 173 176 175 170 168 165 157 167 166 190 190 197 164 154 172 199 204 181 162 147 178 201 209 226 276 306 247 152
143 120 132 169 193 182 229 204 215 210 199 218 237 224 194 184 177 178 177 173 178 177 178 182 186 187 181 165 164 155 160 166 172 211 183 131 196 230 254 286 293 235 201
240 210 183 168 175 181 173 184 194 211 224 241 226 212 194 186 179 166 161 165 174 178 175 169 165 164 155 158 159 149 157 168 176 176 195 161 148 208 250 257 235 204 142

GFSSE_con_3kmhel_084.txt.gz
Helicity
56 43 61 56 54 35 26 36 23 6 18 40 59 51 28 19 39 57 57 54 47 59 57 32 27 30 20 14 13 8 4 2 4 5 -7 2 -0 7 11 11 8 1 14
94 59 56 45 34 18 36 34 15 10 13 29 35 29 26 33 37 35 50 61 51 38 23 16 19 11 -1 -1 5 -4 -5 -3 -2 -2 -8 -20 1 5 8 19 18 10 13
89 44 28 36 23 28 32 23 16 13 13 5 19 20 24 30 43 55 59 47 19 15 9 7 1 -5 -7 -13 -10 -21 -21 -9 -0 -24 -19 -7 -9 10 16 22 22 20 20
85 33 26 27 34 30 21 12 4 -2 -8 4 5 10 13 20 30 35 30 11 1 -0 -2 -8 -13 -18 -18 -18 -27 -34 -30 5 18 5 -18 -11 -4 2 -4 4 19 23 19
81 33 19 24 27 12 7 -1 -6 -13 -13 2 -1 -6 1 2 9 8 1 -4 -7 -7 -8 -19 -30 -29 -37 -31 -38 -38 12 18 11 1 -6 -6 -5 7 12 16 19 22 21
91 45 25 15 10 -0 -7 -15 -21 -22 -16 -2 -2 -8 -11 -11 -12 -7 -7 -9 -16 -18 -20 -29 -40 -45 -46 -35 -24 -4 5 22 11 5 7 11 8 25 26 27 30 30 28
81 42 14 -3 -8 -16 -21 -26 -33 -35 -33 -5 -5 -6 -10 -14 -19 -20 -20 -23 -29 -28 -28 -29 -27 -27 -21 -15 -5 15 24 40 23 23 21 18 19 36 35 32 31 34 37
63 41 10 -16 -33 -39 -45 -51 -55 -55 -58 -32 -21 -21 -21 -25 -28 -33 -33 -32 -31 -28 -19 -11 -0 -0 5 10 17 21 41 43 44 41 35 24 40 45 44 40 37 37 39
80 81 52 -5 -44 -44 -61 -75 -80 -78 -82 -76 -40 -43 -41 -39 -33 -28 -27 -23 -22 -17 -13 -2 9 22 25 27 35 39 43 51 45 36 45 28 48 53 51 45 41 42 42
91 68 72 46 25 -19 -52 -68 -71 -78 -88 -97 -50 -49 -44 -41 -34 -23 -20 -9 2 3 12 14 22 28 35 38 33 34 34 54 50 47 48 33 54 62 58 53 50 49 50
84 80 74 55 34 9 -14 -37 -32 -42 -44 -30 -18 -28 -28 -39 -25 -11 -8 6 10 21 26 30 35 38 38 33 32 28 28 39 38 47 51 46 59 67 67 61 54 51 51
74 96 72 60 46 26 18 5 -5 -20 -20 -10 -11 -10 -10 -8 -8 -3 6 21 23 22 27 22 24 27 28 29 29 30 38 35 41 48 47 49 58 58 65 70 63 58 57
52 61 58 61 59 50 44 37 36 21 11 1 7 4 9 10 7 14 13 15 29 22 22 18 12 17 19 24 28 31 32 29 43 42 48 56 53 55 57 57 67 63 62
105 54 14 43 52 58 62 47 35 37 31 19 18 16 23 27 30 27 25 17 18 22 17 19 20 16 18 20 18 20 26 35 42 48 45 57 57 55 57 55 56 63 68
282 227 8 16 14 59 75 63 46 38 37 14 40 26 29 42 38 31 21 20 16 22 20 18 20 20 15 21 33 40 39 44 46 57 63 62 69 65 62 58 57 60 61
12 36 44 32 4 48 85 79 71 31 12 32 41 45 45 57 59 33 35 25 17 29 27 27 33 33 34 41 39 49 48 53 56 58 70 71 71 70 76 66 59 52 46
3 80 -85 41 60 66 50 68 94 71 46 33 30 48 68 67 57 54 52 46 33 35 39 44 45 51 51 58 50 54 63 60 60 59 66 79 80 80 91 80 72 60 27
128 101 158 119 64 53 50 68 71 108 119 78 53 90 95 92 75 64 57 47 41 45 50 54 56 58 57 63 71 71 78 73 67 70 88 97 100 107 105 102 82 76 57
137 134 172 162 221 52 28 30 89 124 124 113 112 94 74 76 77 77 62 50 56 62 65 68 65 77 76 77 81 79 82 97 86 85 83 85 104 112 118 104 104 122 107
116 158 112 76 124 142 54 57 95 137 144 151 121 81 72 69 70 66 59 56 69 75 68 76 76 92 91 85 88 85 89 97 100 96 93 100 111 142 134 151 176 176 172
116 101 83 86 70 113 176 133 107 143 181 189 153 80 70 88 79 71 70 73 75 73 72 80 99 94 97 112 98 92 100 99 111 100 87 78 104 163 209 182 210 169 143
124 99 93 100 105 74 179 164 149 129 178 133 112 129 109 129 120 115 110 117 115 112 104 105 112 113 110 114 113 103 100 101 140 132 129 109 105 166 196 212 199 205 194
135 109 119 104 112 97 124 188 239 196 186 165 173 172 148 188 197 202 188 162 139 120 123 112 117 126 125 144 172 176 139 113 132 146 157 155 162 190 223 243 271 269 224
84 95 117 92 114 119 149 174 197 202 193 158 125 210 225 200 187 189 181 175 164 151 150 134 151 164 191 152 152 193 204 208 159 159 133 155 191 215 241 283 304 267 251
78 83 83 107 139 139 151 156 180 173 182 216 275 282 229 196 162 174 180 183 177 169 168 172 168 170 179 167 164 166 183 186 183 209 170 141 213 268 304 329 309 273 254
131 139 135 136 161 152 179 182 182 193 219 233 242 241 221 203 196 199 196 180 165 163 164 156 156 151 152 156 167 170 172 175 185 210 200 180 181 245 287 296 292 216 168

GFSSE_con_3kmhel_087.txt.gz
Helicity
82 61 62 76 66 51 48 42 38 43 59 61 46 36 26 37 45 52 47 58 54 60 36 29 23 11 12 4 -0 6 6 14 16 8 -9 -10 -5 13 9 6 -0 -6 5
125 70 60 68 51 47 45 36 23 19 49 37 35 13 25 43 44 45 47 54 58 30 24 19 12 8 6 5 -13 -14 -12 -0 2 -3 -20 -34 -18 7 16 14 11 12 21
138 87 80 55 32 46 48 28 12 29 30 21 24 30 36 36 37 54 60 43 22 17 7 4 3 -2 -11 -17 -39 -37 -36 -22 -20 -17 -22 -34 -29 -2 8 14 -1 -3 9
133 90 70 39 38 39 37 26 16 11 5 4 7 21 32 53 66 49 27 19 4 -2 -7 -6 -12 -18 -19 -42 -59 -35 -20 -8 -11 -16 -30 -26 -23 -5 -14 -9 2 -4 -4
116 77 49 38 38 31 16 10 2 -2 -2 -10 -6 4 18 30 34 21 -3 -12 -21 -21 -23 -23 -30 -33 -38 -46 -39 2 -4 -4 -6 -14 -17 -17 -16 2 13 16 10 9 10
111 95 51 42 35 18 7 -10 -11 -10 -7 -15 -17 -12 -6 -0 -6 -8 -17 -29 -32 -36 -43 -42 -42 -32 -30 -26 -7 12 14 13 9 -2 -4 -3 -2 20 20 18 16 15 13
90 86 58 46 31 17 -1 -24 -24 -22 -13 -15 -23 -24 -22 -19 -18 -22 -28 -37 -43 -43 -47 -46 -36 -29 -18 -11 -6 8 30 29 14 10 6 5 9 29 27 24 22 21 19
73 82 60 41 28 10 -4 -26 -40 -33 -11 -15 -21 -27 -29 -35 -28 -36 -41 -44 -41 -37 -38 -35 -22 -15 -11 -3 16 22 31 32 26 21 17 13 27 35 33 31 29 28 25
95 94 80 46 23 11 -6 -26 -42 -43 -21 -23 -30 -34 -42 -47 -47 -44 -45 -37 -31 -21 -20 -11 -10 -6 -0 3 19 33 28 39 33 26 27 19 27 40 40 38 36 36 34
111 117 78 59 37 18 -8 -29 -41 -53 -51 -40 -52 -46 -50 -56 -57 -46 -41 -35 -17 3 3 6 12 7 -0 13 17 26 37 36 35 36 34 26 30 46 46 45 42 40 39
87 74 76 58 46 21 2 -27 -40 -59 -63 -52 -56 -51 -46 -54 -43 -30 -20 -10 -4 1 10 21 13 16 12 9 16 19 34 31 27 34 40 28 29 49 53 50 49 46 45
64 76 94 88 57 32 19 4 -15 -24 -19 -8 -24 -29 -29 -26 -20 -11 -3 8 12 13 9 14 18 11 17 16 13 22 31 29 31 36 43 39 31 40 56 59 59 55 52
96 87 81 86 69 51 53 36 30 19 18 12 12 9 7 7 2 11 12 14 18 20 18 12 15 16 12 18 22 21 25 32 38 38 36 41 40 38 47 50 61 61 57
111 106 142 102 59 56 74 67 49 36 32 27 21 26 29 27 18 20 18 16 20 26 19 16 18 14 14 18 20 19 25 30 42 48 43 38 49 43 41 54 51 52 56
170 71 81 131 57 44 63 82 72 52 41 40 41 36 48 43 35 36 26 21 16 19 18 15 15 15 15 16 18 26 25 31 42 55 62 47 51 51 42 47 56 52 46
240 107 87 161 106 35 38 59 81 69 49 57 45 33 38 50 51 51 42 22 17 20 17 20 20 23 23 31 27 36 39 45 49 52 58 62 49 59 54 53 58 54 44
140 53 -142 61 64 33 37 36 64 72 66 65 57 45 44 64 59 60 57 37 25 28 21 29 30 39 39 44 36 40 50 56 52 59 75 81 78 65 60 75 69 64 36
76 -4 -47 -0 53 44 47 36 68 75 76 51 61 71 59 76 87 79 69 52 43 46 50 50 47 46 45 46 49 48 64 70 62 68 74 73 89 98 93 77 76 93 91
90 80 1 -75 62 15 57 37 38 43 71 73 68 72 83 92 90 94 86 70 61 58 54 54 52 60 57 54 52 57 57 70 75 81 70 86 96 108 117 112 104 128 116
118 72 38 55 74 18 36 -28 172 40 27 32 99 90 71 68 83 96 87 73 71 68 62 65 58 68 70 60 54 64 65 60 70 77 81 89 100 109 121 148 186 151 147
131 159 102 108 76 121 104 123 107 152 48 81 127 121 99 78 82 81 74 59 57 61 54 62 68 62 63 81 82 71 66 62 59 84 96 71 81 96 143 194 195 181 170
86 121 120 101 84 126 112 188 157 18 75 181 163 125 86 54 68 85 82 82 80 85 79 78 86 76 86 102 94 82 71 62 95 107 136 127 125 145 190 231 248 274 242
70 55 80 88 99 108 123 185 167 194 136 200 165 195 116 103 127 98 85 100 110 115 103 106 108 95 89 121 153 149 114 74 94 131 155 143 151 175 207 247 268 262 251
66 70 51 61 74 91 154 137 122 183 188 129 169 157 171 172 169 184 205 149 146 167 138 136 131 121 131 112 140 170 190 189 136 135 145 165 188 213 244 275 298 284 258
71 81 68 59 65 107 131 128 141 159 190 194 202 226 177 189 180 179 167 150 138 142 146 145 130 125 132 127 131 137 155 167 171 184 131 155 203 237 279 297 304 276 248
73 80 77 76 45 73 103 125 133 148 148 204 224 231 219 185 130 111 131 132 137 159 146 129 130 135 128 122 131 140 141 147 170 178 189 164 168 222 261 287 282 256 240

GFSSE_con_3kmhel_090.txt.gz
Helicity
102 90 73 75 55 48 45 40 54 57 40 38 45 56 36 28 44 53 57 49 41 44 28 23 19 12 7 5 4 7 5 6 -8 -11 -17 -15 0 3 -1 2 -1 -7 3
143 100 82 70 43 43 42 42 50 49 27 14 22 21 24 30 45 37 44 48 38 25 21 15 10 9 4 -9 -14 -16 -11 -11 -21 -21 -22 -30 -21 -6 -6 -6 -2 13 9
145 104 59 59 49 48 35 37 32 36 21 -8 7 22 34 39 36 39 47 28 19 12 9 9 4 -3 -20 -37 -48 -50 -36 -29 -32 -31 -31 -33 -35 -16 -8 -17 -9 5 -1
138 113 88 73 53 59 33 27 26 20 12 18 14 29 20 27 43 54 20 10 0 0 -2 -8 -12 -22 -44 -47 -39 -26 -18 -21 -21 -20 -35 -32 -29 -13 3 -1 0 -1 -9
153 130 88 58 53 53 46 26 13 3 -2 19 25 31 30 48 31 11 -1 -10 -10 -17 -22 -25 -29 -38 -43 -40 -17 -17 -13 -16 -16 -20 -22 -21 -23 -4 8 9 5 -2 4
150 120 67 49 49 42 38 12 4 -8 -14 -4 9 16 22 15 -4 -11 -20 -22 -30 -39 -40 -37 -35 -28 -25 -14 -10 -10 -9 -8 -10 -15 -16 -12 -10 15 18 18 15 11 9
108 113 68 61 35 32 22 -5 -2 -6 -17 -22 -18 -13 -9 -21 -21 -29 -31 -37 -42 -44 -41 -34 -27 -22 -11 -5 -7 -2 -1 -2 -10 -9 -8 -6 -1 22 23 22 20 20 17
94 105 83 59 38 23 12 -2 -3 -4 -16 -26 -37 -41 -37 -32 -36 -38 -42 -49 -46 -42 -33 -22 -14 -8 -2 4 4 2 9 8 5 4 -1 -9 13 26 29 27 28 28 27
109 123 116 81 56 45 23 10 -2 -2 -7 -15 -28 -34 -37 -48 -47 -47 -47 -46 -39 -32 -28 -14 -8 6 7 11 15 11 8 18 14 8 13 3 2 27 34 32 35 36 35
105 133 102 88 76 55 37 8 18 -5 -4 -13 -18 -21 -30 -39 -52 -52 -44 -36 -18 -3 2 10 6 9 15 18 20 17 21 23 16 16 16 11 6 28 34 36 39 44 43
116 96 76 71 70 51 43 22 7 6 -9 -16 -21 -25 -28 -38 -38 -32 -24 -9 3 14 17 20 21 17 18 21 18 22 23 14 16 16 22 15 18 28 40 43 46 50 50
111 94 75 60 57 47 47 29 13 6 -11 -18 -21 -27 -32 -27 -22 -12 -6 2 10 17 21 21 21 18 21 15 9 20 21 15 17 20 28 21 27 23 45 53 52 54 54
115 151 167 151 107 56 49 40 28 19 13 7 -1 -12 -5 4 6 13 16 15 19 21 23 23 20 18 12 11 12 11 10 15 20 25 26 26 31 27 28 40 53 52 48
124 187 168 154 122 94 81 62 46 45 34 30 25 20 24 28 25 28 28 27 24 27 18 17 16 16 10 8 7 5 9 17 26 30 32 29 33 35 27 38 41 38 39
100 104 64 72 93 93 81 83 70 60 55 53 49 38 47 43 37 42 36 38 31 27 24 14 12 12 11 10 11 14 16 20 23 39 49 37 40 45 37 40 38 39 43
48 99 128 -7 29 64 51 63 68 76 81 76 69 55 52 56 57 56 50 45 41 35 26 25 21 17 14 19 17 21 21 29 33 39 52 56 48 57 48 44 46 42 39
52 141 388 31 -28 42 52 41 44 54 65 85 70 69 67 64 57 60 63 55 48 44 31 31 29 33 31 33 21 25 31 36 48 49 59 61 65 56 55 58 56 43 25
150 145 129 -108 10 45 47 60 36 25 51 67 66 73 66 76 76 80 79 67 62 50 49 50 48 40 33 32 32 27 36 46 45 43 56 65 73 80 88 77 71 47 109
153 140 62 -109 -23 -29 72 54 46 59 33 37 61 64 50 67 91 92 97 87 79 71 57 58 55 51 41 35 36 29 33 34 38 48 45 52 65 79 86 79 84 104 143
147 128 68 3 -65 -60 160 56 93 46 60 97 42 29 30 85 108 103 104 94 96 81 65 63 51 54 50 42 40 32 38 43 46 42 52 58 54 67 82 97 124 144 167
124 125 95 35 -68 7 -32 118 30 -66 -28 88 72 32 46 65 95 83 97 105 87 63 45 46 41 40 34 41 51 56 48 49 48 56 69 75 77 78 103 145 190 246 275
118 67 79 69 5 39 68 36 37 43 84 13 111 94 78 79 73 66 85 95 77 71 55 55 60 67 77 74 72 59 49 41 38 61 96 107 99 92 155 199 249 269 247
74 82 92 61 57 65 87 64 135 84 108 72 -14 75 92 82 81 109 101 80 69 75 81 91 94 84 68 82 90 82 61 56 71 78 111 139 133 142 171 204 238 229 240
48 48 48 52 68 86 130 93 65 88 135 77 98 134 139 181 155 149 135 159 102 35 55 86 119 106 92 72 83 111 128 129 98 92 110 137 165 177 190 206 227 238 241
92 68 57 32 27 37 72 123 145 70 153 188 160 192 197 211 197 180 208 184 157 94 103 62 68 88 84 77 79 91 110 131 152 143 113 117 163 182 195 215 238 243 246
88 82 62 61 73 68 79 79 93 110 136 169 170 128 147 119 153 134 170 195 162 90 91 100 93 92 85 90 95 94 102 129 140 148 144 129 128 161 183 208 221 220 214

GFSSE_con_3kmhel_093.txt.gz
Helicity
111 86 100 88 55 61 48 48 56 45 31 43 68 66 39 34 58 47 50 43 43 23 36 27 7 6 15 15 15 5 -3 -9 -7 -3 -18 -12 -9 -2 -6 -5 -4 -1 -0
144 82 78 65 54 49 45 48 52 44 19 23 44 34 22 33 48 47 42 39 21 18 19 14 6 -1 4 -3 -3 -9 -22 -26 -25 -17 -32 -38 -23 -15 -15 -0 -8 -3 2
137 94 65 48 51 46 49 58 47 39 -9 -5 4 4 16 30 33 33 39 18 13 13 16 15 -3 -20 -28 -38 -34 -29 -37 -39 -33 -30 -28 -22 -13 -12 -9 -6 -2 -4 4
120 95 62 60 63 46 45 50 43 32 -30 -17 -7 10 33 32 35 39 19 6 2 12 5 -3 -18 -29 -33 -26 -20 -21 -25 -26 -29 -31 -30 -23 -13 -5 -4 -7 -3 -0 4
100 80 64 64 65 44 44 43 43 36 18 2 7 5 21 36 54 13 4 -5 -0 1 -9 -18 -28 -37 -33 -16 -11 -11 -16 -16 -20 -21 -11 -6 -6 4 10 6 2 5 4
92 70 73 69 56 48 50 39 38 42 39 32 39 23 49 51 10 -3 -3 -12 -16 -23 -25 -26 -25 -22 -14 -12 -6 -5 -6 -12 -23 -13 -6 3 7 15 17 16 14 11 6
84 76 66 66 65 60 48 37 23 27 33 57 68 71 38 -1 -5 -6 -15 -28 -35 -34 -28 -26 -20 -11 -7 -10 -5 -2 -0 -7 -12 -5 -1 1 13 21 22 22 22 22 19
93 81 55 65 48 44 29 27 19 10 11 23 39 18 -2 -1 -5 -13 -25 -36 -35 -30 -25 -18 -9 -4 -0 1 -4 -0 1 -4 -6 -0 -0 2 11 25 26 26 28 31 32
98 93 81 71 39 49 39 42 25 -0 -2 2 -5 -12 7 1 -21 -22 -29 -34 -31 -26 -15 -4 -0 7 6 7 8 5 3 3 1 2 5 6 -5 24 31 33 35 37 39
106 101 117 67 55 55 54 47 32 8 4 5 -6 18 -3 -21 -29 -26 -23 -30 -20 -7 2 15 14 18 18 13 8 8 13 6 1 1 5 10 -1 25 35 38 41 43 47
126 112 91 64 70 72 58 68 35 12 12 22 17 9 9 -24 -30 -26 -17 -0 10 20 19 23 22 25 24 25 18 11 5 5 4 7 8 8 7 23 37 39 39 44 49
137 130 96 64 74 75 68 55 58 1 8 7 1 -5 -13 -19 -26 -20 -7 6 22 29 31 31 31 28 21 16 14 13 7 8 9 13 12 7 8 15 38 43 38 38 44
122 157 115 110 108 90 75 60 54 43 25 4 5 -7 -13 -18 -17 -6 10 16 27 32 34 32 29 25 23 18 15 12 6 4 10 15 17 11 10 16 19 33 41 35 38
135 158 125 123 118 104 87 52 41 44 39 21 13 -1 -2 4 9 17 24 28 32 37 37 33 30 28 23 16 9 8 8 7 12 20 22 17 16 17 20 22 32 27 33
82 124 133 132 113 97 77 55 44 37 44 42 38 29 30 29 27 36 37 39 35 39 34 31 32 27 20 15 12 6 6 12 17 29 36 29 22 19 25 20 14 23 27
102 85 115 89 74 63 65 59 57 51 51 52 50 48 40 46 45 48 43 41 42 42 42 36 28 25 20 20 15 18 17 23 28 34 45 49 49 35 38 39 34 25 20
225 71 80 31 16 49 65 65 65 67 60 57 54 51 49 50 50 51 49 47 49 51 45 43 33 29 28 27 20 22 20 22 26 28 41 37 44 36 38 44 42 30 40
67 -82 -27 12 -11 90 62 64 69 72 70 69 63 65 51 47 52 56 56 50 63 62 56 53 46 37 31 28 28 26 22 17 12 21 36 43 49 50 60 61 43 42 74
33 -31 12 5 69 -20 92 60 52 71 101 79 70 62 49 46 48 55 63 63 72 77 68 67 59 47 37 28 26 26 24 20 18 36 44 48 49 54 60 67 72 77 108
41 44 59 105 125 73 90 106 91 70 81 79 92 38 26 42 44 57 67 71 88 93 94 74 58 45 43 32 27 25 28 27 31 44 33 37 43 51 55 72 94 127 140
106 52 96 36 36 6 -78 98 116 121 120 77 81 51 54 40 27 65 89 86 102 92 75 61 60 37 37 43 39 41 40 45 38 64 55 59 69 70 74 86 121 161 232
29 72 119 78 47 -38 -9 -72 99 78 55 40 119 80 80 95 74 70 96 93 86 97 77 58 61 88 87 69 57 42 36 35 34 74 73 71 86 81 95 123 150 197 219
105 71 94 74 60 17 -50 11 -110 80 76 43 -25 58 126 110 101 99 104 81 101 121 123 118 85 86 87 64 62 63 46 48 72 68 81 105 107 109 120 140 170 198 229
31 78 72 25 13 24 -7 -14 -17 64 3 7 56 19 85 116 97 108 135 155 153 130 144 91 71 70 76 66 56 69 70 86 64 46 72 102 134 118 124 133 158 184 199
56 38 53 60 20 -27 1 48 176 99 110 123 58 15 50 42 69 137 140 146 168 128 141 87 79 102 130 56 30 60 75 82 89 88 81 115 115 128 141 148 156 176 191
93 77 56 35 35 55 48 69 120 141 112 174 118 156 188 128 123 85 150 150 155 113 131 230 141 104 61 32 56 84 93 88 92 97 102 129 104 107 116 137 153 165 184

GFSSE_con_3kmhel_099.txt.gz
Helicity
125 140 116 76 69 46 33 31 33 36 47 40 36 33 33 35 46 35 37 18 12 20 26 35 37 44 37 24 27 25 30 27 17 9 5 23 13 10 7 3 -0 6 6
128 113 118 83 57 48 30 26 28 39 47 59 45 47 41 47 44 37 32 29 36 25 35 38 39 31 21 11 11 12 11 3 -5 -27 -26 -13 3 -4 -0 -3 -6 2 10
179 121 99 106 71 48 36 38 35 30 43 65 55 48 38 46 44 45 41 48 33 29 39 31 28 18 7 -4 -4 -2 1 -5 -15 -35 22 -10 -7 -6 3 8 10 16 23
143 102 99 116 75 49 49 44 34 22 34 44 49 37 38 44 45 50 44 38 26 33 40 37 13 2 -2 -3 -2 -1 -0 -12 -14 77 -23 -7 -0 -2 4 11 20 25 26
100 65 101 108 73 59 53 52 36 16 24 24 35 32 39 55 46 46 36 24 40 49 20 19 12 12 2 4 3 6 -2 -27 -28 -9 -4 -4 -1 4 7 8 12 27 44
80 55 126 98 74 72 66 61 36 16 10 17 22 22 55 46 39 43 29 58 46 35 26 7 8 5 7 7 6 1 -18 -21 34 -0 4 10 12 14 18 19 17 19 22
91 122 83 81 75 79 78 69 50 23 2 -1 22 58 66 65 47 46 49 42 38 38 15 -1 5 4 6 6 9 4 -8 10 -1 5 12 15 13 20 23 25 27 30 32
75 113 87 81 75 82 88 81 81 71 32 40 60 68 72 85 54 40 40 28 24 37 11 9 6 7 7 8 7 4 -6 -1 -3 11 18 22 16 23 25 28 35 38 39
85 79 99 89 69 93 97 100 78 118 115 121 95 74 84 89 52 50 36 13 14 24 7 11 13 16 14 11 5 3 -5 -5 -8 12 12 28 19 24 26 28 34 38 43
232 94 98 90 67 64 78 110 105 116 125 134 103 117 107 87 61 38 21 10 8 15 18 12 17 20 22 20 15 5 -5 -21 -2 10 15 34 22 26 27 27 29 35 39
-406 60 75 102 68 64 69 106 134 106 112 115 118 107 80 58 59 34 25 17 28 29 22 18 23 24 26 24 15 4 -11 -5 12 14 27 48 23 19 26 25 24 30 40
-242 -43 369 104 83 65 95 94 100 112 85 71 61 41 26 44 33 8 32 35 35 34 29 24 25 21 1 18 19 4 -7 15 9 13 48 45 24 15 16 21 22 26 28
-524 -83 222 58 73 148 125 105 114 114 96 76 40 27 54 58 56 24 24 17 20 16 17 21 22 10 8 21 26 5 14 6 5 16 55 37 21 13 10 10 16 24 32
-209 -68 -35 8 75 183 125 102 101 103 92 71 34 42 65 65 37 25 16 18 19 22 13 15 20 23 25 19 18 9 15 7 7 17 57 41 26 18 13 7 6 12 22
-291 -161 130 44 117 166 110 101 116 114 107 103 114 90 73 57 47 38 34 32 36 38 40 36 30 27 20 17 18 9 5 2 10 23 28 43 28 23 21 18 9 7 -0
-86 200 301 121 155 157 82 92 114 124 120 105 109 95 70 60 57 51 44 50 49 45 42 38 32 30 30 22 13 12 11 18 19 18 16 43 43 33 26 22 16 -8 -3
57 279 178 155 122 99 108 118 85 79 112 122 102 72 65 59 55 58 62 61 58 53 40 45 37 40 40 37 27 23 23 9 23 14 16 27 48 41 37 35 27 18 15
174 219 -8 68 64 88 77 102 114 114 96 87 81 79 58 59 56 70 71 62 49 48 47 47 45 47 44 41 38 26 29 24 17 14 20 32 31 45 41 51 51 46 38
163 156 176 130 68 117 62 69 68 86 112 106 95 85 77 66 72 78 74 66 62 62 62 49 54 59 60 56 50 46 62 37 38 27 23 36 34 40 38 44 50 52 56
80 57 79 196 112 106 79 72 83 80 81 90 102 98 79 90 81 83 90 86 69 76 78 65 55 73 81 81 101 77 66 54 41 35 47 42 55 39 36 44 47 119 102
87 112 34 114 -28 45 99 60 70 75 92 96 100 80 87 84 82 78 94 78 83 72 81 74 82 104 127 121 105 83 73 54 49 79 52 43 55 42 48 49 60 145 124
111 110 19 32 153 56 76 33 65 83 74 71 95 102 109 101 96 92 96 115 107 107 91 90 117 143 142 127 139 180 127 86 92 76 61 67 61 49 67 67 94 151 176
154 77 87 123 42 151 103 69 80 90 115 133 121 141 113 104 127 112 117 116 105 123 108 148 179 163 194 207 214 202 185 163 137 60 70 59 51 53 72 75 102 146 180
198 96 94 85 111 113 72 85 76 101 85 104 174 165 155 121 97 108 107 104 101 132 186 263 316 311 267 245 198 176 170 158 133 102 56 10 49 50 74 77 106 134 151
156 88 107 64 21 27 23 44 53 107 116 157 114 129 134 120 117 111 88 69 128 181 191 241 198 399 219 221 239 190 233 193 95 78 95 35 44 61 95 127 164 166 171
88 64 -24 -91 -61 -2 1 10 43 27 57 80 114 121 156 134 113 105 160 89 71 237 193 160 106 91 34 118 143 170 198 278 188 118 166 57 35 87 164 158 159 153 167

GFSSE_con_3kmhel_102.txt.gz
Helicity
117 103 135 83 69 65 59 52 46 47 50 43 43 24 13 27 49 30 26 21 37 39 58 63 52 46 47 49 46 44 39 32 28 31 54 17 20 14 20 2 12 -5 3
118 107 126 103 64 63 56 51 47 47 46 46 48 34 24 40 45 30 24 29 41 61 61 67 51 47 37 32 27 16 13 6 -8 -30 -1 13 10 18 18 15 1 1 14
133 105 142 109 79 56 52 54 48 48 53 64 47 40 30 46 46 34 30 46 37 56 59 55 44 31 22 12 7 -8 -14 -15 -9 -28 -2 -35 -2 9 15 21 15 24 30
156 97 162 84 87 59 55 53 53 43 56 60 49 43 42 53 51 53 58 49 50 56 56 41 29 18 9 3 -1 -10 -15 18 61 67 -13 -9 -0 8 10 20 41 33 38
128 92 154 101 88 63 60 54 54 45 55 54 51 46 54 62 52 57 62 47 56 72 42 26 21 13 10 8 4 -9 -16 28 63 42 40 5 -2 6 14 17 19 27 36
47 101 142 119 82 72 60 54 47 50 44 46 49 45 51 67 59 59 55 62 85 56 37 28 24 15 16 14 7 -4 13 33 15 -14 6 18 4 19 22 22 22 28 29
66 157 139 110 75 79 65 54 42 51 44 33 46 32 54 70 63 56 72 59 67 54 31 19 19 18 18 15 10 2 21 47 -2 16 20 9 4 22 25 29 32 34 35
101 145 137 91 97 81 69 61 40 47 51 45 27 37 65 61 60 66 57 51 66 40 18 17 15 15 16 14 12 8 15 30 18 19 24 8 15 24 29 32 33 35 42
294 156 154 140 116 85 81 72 33 58 51 34 43 95 95 82 60 61 52 51 53 37 23 20 13 11 13 13 9 3 -0 21 29 4 34 3 16 25 29 31 35 37 37
317 385 524 337 117 106 111 88 59 109 97 79 96 134 120 102 72 74 51 50 42 43 32 24 20 19 16 15 9 1 -10 4 -7 4 27 16 24 28 28 28 31 32 36
265 254 283 348 397 68 96 139 94 163 182 182 167 138 129 116 96 78 73 52 37 41 34 26 22 20 16 15 9 -5 -20 -6 -28 11 50 35 27 21 22 26 24 26 29
125 155 24 26 307 205 71 148 125 155 210 206 179 135 151 103 110 89 87 56 47 57 41 24 21 14 8 8 10 -1 -6 -10 21 33 34 36 29 15 13 19 19 21 25
80 61 -104 -243 -24 37 184 147 164 148 167 158 136 76 48 83 104 133 98 69 64 44 29 29 22 7 -5 12 23 22 8 16 8 32 35 38 27 13 10 6 16 30 28
91 -9 -146 -300 -4 187 120 157 217 120 139 128 61 9 92 160 127 103 88 45 29 16 12 18 20 3 9 16 15 14 30 11 6 35 48 42 28 15 7 4 -0 7 28
45 -4 -47 140 -27 154 87 201 228 177 121 122 75 79 132 133 97 71 42 22 27 22 -3 20 29 31 40 17 13 23 10 13 -8 26 51 44 35 16 11 8 4 5 8
81 12 -101 -164 -62 87 68 242 181 190 191 165 101 154 172 97 87 91 57 41 44 57 64 57 34 28 25 27 21 17 11 17 31 34 53 46 45 20 16 8 9 9 31
94 78 1 115 23 67 182 167 192 201 204 239 245 252 179 132 146 129 101 81 77 73 59 57 40 45 33 38 32 31 36 23 24 20 31 72 48 21 33 14 9 23 50
117 93 163 136 250 230 86 69 94 198 256 209 200 192 150 123 116 108 101 89 88 83 61 64 52 62 62 52 44 22 29 34 33 30 49 56 55 43 26 24 27 31 23
105 105 67 125 213 181 127 68 127 119 152 171 144 142 134 123 116 116 107 87 77 75 66 59 51 73 60 62 61 48 72 59 56 83 83 89 85 77 48 22 31 29 34
76 90 68 105 167 131 190 138 77 79 112 114 124 136 117 126 126 116 109 94 95 99 88 73 64 68 53 64 87 125 107 94 90 95 97 86 69 60 61 52 44 63 68
3 43 118 177 109 174 159 115 120 113 104 109 123 109 99 124 116 116 132 122 107 92 67 66 73 67 71 149 130 127 108 83 112 123 107 110 71 62 66 59 63 79 111
-0 22 115 187 124 150 176 78 71 112 120 121 118 121 107 106 107 109 118 124 129 115 91 85 84 85 102 134 157 163 160 155 179 142 120 103 85 64 78 73 91 100 120
1 68 59 95 140 182 200 129 116 109 83 121 128 136 130 107 121 127 122 132 141 140 154 138 141 155 141 166 157 176 205 215 200 126 113 118 97 86 84 70 100 154 141
165 220 124 128 177 166 68 124 169 79 115 103 102 130 145 142 136 117 122 114 128 124 135 162 215 227 214 263 301 208 269 216 245 182 117 114 97 87 101 80 104 128 188
295 226 196 182 121 81 97 134 146 136 148 88 130 141 179 181 140 126 105 97 93 118 144 182 245 336 334 267 303 297 380 260 319 337 165 143 62 22 48 61 147 200 192
273 190 106 175 205 146 119 112 69 153 136 151 104 115 117 137 174 200 109 103 114 112 103 141 109 273 291 189 187 96 95 102 116 90 110 60 41 98 120 86 146 220 202

GFSSE_con_3kmhel_105.txt.gz
Helicity
43 38 61 128 109 109 105 83 77 54 60 54 53 37 36 36 49 45 46 48 39 33 37 59 66 63 60 62 53 53 50 49 56 49 39 41 25 28 17 18 1 -5 21
80 54 69 117 139 100 95 85 77 67 59 49 50 34 19 26 45 38 46 61 68 77 76 59 65 59 44 44 36 35 31 19 20 32 25 30 23 26 26 20 5 16 29
118 87 92 121 148 110 86 83 75 67 70 56 52 34 23 44 41 28 49 73 72 70 67 59 51 45 31 16 10 14 17 7 -10 -1 0 -1 2 18 27 13 28 38 39
111 119 122 130 135 122 90 68 68 60 75 67 52 43 32 46 43 40 42 71 72 67 59 49 37 25 15 -2 -6 12 31 55 29 -3 -20 -6 -1 14 19 30 31 37 42
106 103 92 154 126 106 90 69 58 59 82 78 58 53 47 51 54 52 66 93 89 72 51 40 26 17 10 0 0 23 46 63 26 30 -1 -3 -9 8 18 21 23 29 33
56 70 60 135 131 103 91 73 63 56 67 79 70 52 46 63 65 72 95 112 93 67 48 39 25 17 17 13 10 27 36 33 9 9 8 7 -2 19 25 28 32 33 32
37 94 76 93 127 102 82 66 60 60 56 70 67 60 50 66 74 83 113 97 84 69 52 34 25 21 18 11 8 19 35 46 14 3 6 2 3 26 29 32 37 37 40
69 114 86 93 99 87 70 64 57 55 56 43 48 61 63 88 85 64 82 93 82 63 44 30 24 23 21 10 4 12 25 44 4 9 7 3 16 27 29 31 31 34 36
317 314 286 207 111 93 82 70 61 46 58 47 43 59 80 81 80 87 75 76 90 51 39 30 21 19 17 8 1 5 18 27 7 8 6 0 15 24 27 29 31 32 36
340 363 373 348 296 259 124 71 65 47 77 60 60 62 85 84 81 85 54 71 88 67 56 34 17 14 13 8 1 -3 13 18 19 19 5 1 22 24 26 22 25 27 29
331 304 332 409 370 289 256 140 98 74 81 88 112 113 117 119 90 93 73 89 94 70 51 28 21 19 14 9 3 -4 2 2 -2 19 13 19 23 20 19 17 17 21 25
246 226 274 359 426 355 278 259 126 131 153 162 167 156 172 149 121 96 99 97 78 72 43 22 16 15 12 7 3 -8 4 8 5 22 20 21 23 16 12 11 14 13 13
227 141 163 208 107 139 333 231 124 93 208 227 217 220 198 179 173 151 151 133 108 83 48 26 15 8 6 11 9 10 8 0 13 25 21 19 20 14 8 0 11 15 15
187 164 125 111 145 76 -104 125 59 60 187 259 245 205 186 204 163 131 134 127 107 76 43 22 12 3 8 11 2 11 0 10 26 22 24 25 17 12 7 5 -2 5 13
135 158 124 101 94 40 -48 86 105 58 131 253 282 213 173 205 161 154 123 101 65 50 29 12 10 10 10 14 25 18 19 7 0 27 28 26 22 10 4 3 1 0 5
128 151 120 86 52 46 -11 198 152 67 125 194 153 169 149 132 145 124 124 86 47 27 9 20 17 21 14 31 17 15 4 20 11 35 32 38 28 28 1 1 -4 -1 21
121 160 126 102 36 -6 8 337 103 117 164 149 101 73 109 130 106 113 109 78 29 37 37 30 23 41 40 30 27 18 17 19 21 28 48 67 48 25 21 16 19 16 28
86 127 133 86 105 55 164 213 172 168 175 153 157 121 169 115 132 145 120 88 84 88 76 72 65 47 45 47 43 30 38 31 41 39 74 76 68 50 42 34 23 31 31
96 139 120 94 166 176 124 421 185 72 238 219 257 282 236 195 170 180 148 135 122 108 92 78 66 70 62 54 46 39 41 35 51 97 125 101 91 83 61 41 57 49 26
139 84 83 102 98 148 71 160 63 89 257 288 255 278 245 202 173 178 154 141 126 113 88 90 80 70 74 56 56 76 73 96 119 117 148 125 107 83 68 77 64 65 56
55 81 97 72 64 108 206 306 233 62 108 168 176 209 186 166 156 161 148 127 112 102 89 80 87 82 74 94 109 88 97 134 140 127 139 144 125 98 95 87 74 76 82
63 56 103 124 71 135 203 169 248 133 155 129 101 110 160 135 137 137 126 116 105 113 104 97 102 111 98 123 131 149 146 184 177 154 151 155 137 117 114 103 88 88 99
1 -72 -31 92 146 101 162 154 172 50 92 90 90 109 105 112 109 103 114 126 120 126 125 114 99 96 130 164 174 174 200 181 222 239 162 143 135 127 109 107 110 104 110
-19 38 57 143 198 166 152 190 222 126 120 137 85 100 149 143 127 121 122 136 135 139 119 110 115 134 174 196 253 256 258 229 238 218 249 213 157 141 119 98 74 106 140
49 0 37 97 135 146 150 166 242 162 148 167 118 130 118 140 146 149 129 123 124 123 106 82 147 184 234 243 268 324 277 256 312 398 333 214 215 121 143 57 74 120 152
184 140 263 263 225 247 139 144 127 166 133 149 179 180 186 179 171 126 144 157 140 104 123 128 120 143 214 248 284 322 354 300 192 141 141 74 86 128 158 152 186 189 170